GFSSGP_250_spd_078.txt.gz
Wind_Speed
51 52 49 52 50 50 54 54 50 47 44 44 43 44 47 48 51 57 60 59 60 59 56 54 51 50 49 48 50 52 56 58 60 63 64 67 70 73 76 78 81 82 82 83 84 84 84 84 83
54 51 53 53 51 53 58 52 49 46 45 46 44 44 44 46 50 51 55 58 60 58 56 53 50 45 45 45 46 49 50 52 55 59 57 57 61 65 65 66 68 71 75 77 78 82 83 83 84
53 54 53 51 52 58 61 60 55 50 51 52 53 51 49 50 50 55 55 56 54 56 55 55 54 50 48 44 45 46 47 49 51 50 50 52 54 56 57 59 62 66 70 69 70 72 70 70 73
57 55 54 55 56 60 65 60 52 54 51 51 51 52 52 52 53 58 61 55 51 51 55 58 55 49 47 45 45 44 44 44 46 45 43 41 43 48 51 54 57 59 57 58 56 56 58 58 60
61 59 58 57 57 61 64 58 53 52 56 59 56 54 52 55 59 64 65 58 52 50 54 56 53 50 51 44 46 43 37 36 37 31 27 22 17 24 32 39 44 51 52 53 55 54 51 49 48
63 61 58 52 53 60 65 66 59 61 64 59 57 56 56 59 63 63 64 60 53 51 51 55 55 51 50 43 42 36 30 27 24 21 16 6 6 6 15 22 30 39 40 43 43 46 45 42 40
63 60 57 56 58 62 74 70 67 68 68 65 61 60 62 65 67 63 68 61 55 56 51 52 52 50 50 41 38 31 23 20 24 29 23 16 20 9 17 21 24 26 30 35 32 30 26 24 26
64 65 63 68 72 71 82 76 75 77 75 72 69 66 66 70 67 64 67 61 62 61 53 49 50 49 45 44 37 28 24 26 42 37 33 28 28 26 31 20 22 18 19 25 20 17 6 5 16
73 68 69 70 75 73 81 80 80 76 73 74 70 69 71 69 68 64 72 64 66 60 52 48 47 46 51 45 33 28 29 29 48 41 37 39 41 34 35 26 19 21 13 18 12 16 13 12 10
70 68 70 75 74 70 73 77 80 73 70 73 73 75 75 75 65 70 76 69 63 56 45 45 43 47 50 43 35 28 30 35 57 48 43 42 45 37 40 37 28 22 21 16 19 16 12 11 9
72 69 73 70 74 72 76 81 84 79 78 81 80 73 72 71 72 75 75 61 59 47 43 39 42 41 43 41 32 30 31 39 50 53 54 48 44 42 42 38 41 39 31 31 25 27 18 19 17
66 69 73 75 73 74 72 77 81 78 73 82 82 78 75 75 73 78 70 53 43 41 41 35 38 42 39 34 32 27 31 35 47 48 58 52 45 51 50 47 42 43 37 35 32 21 22 23 27
67 68 69 70 74 73 70 71 76 76 79 86 82 76 75 71 74 66 59 45 34 39 35 34 37 35 34 31 32 29 30 31 40 49 59 59 49 47 52 49 47 43 43 42 38 30 17 13 18
70 66 68 71 71 73 73 74 80 85 88 85 87 84 80 75 68 55 47 38 38 35 30 29 33 32 32 31 29 29 28 28 39 48 55 60 55 48 53 50 47 45 41 37 39 28 19 11 11
67 67 62 67 73 71 74 69 68 72 76 63 59 57 54 55 50 46 40 38 38 31 26 30 29 29 31 30 28 26 28 29 39 44 48 59 57 63 45 49 54 51 47 39 39 29 28 24 26
63 65 63 67 71 75 77 62 64 63 63 55 61 51 45 50 43 36 39 41 35 28 28 27 26 25 27 30 26 24 27 29 36 44 44 54 57 51 57 40 45 45 42 37 27 29 27 23 23
62 60 64 68 73 74 71 61 58 64 56 57 59 45 40 39 30 38 43 40 32 26 27 25 25 22 26 29 25 23 24 24 36 44 35 41 47 53 50 49 44 47 39 36 38 36 36 33 37
66 64 64 65 72 75 76 54 54 61 52 53 49 38 32 28 36 44 46 37 30 27 26 26 23 20 22 26 22 21 23 21 25 37 34 41 34 29 34 51 42 46 43 43 42 41 42 40 37
69 65 64 71 70 71 68 48 56 59 52 48 39 31 28 34 45 45 42 37 30 28 27 26 22 21 20 19 16 14 18 26 22 26 29 39 29 29 37 42 48 48 47 52 48 47 42 39 38
70 68 69 69 70 67 65 61 59 54 48 42 36 31 33 46 47 48 41 34 30 31 27 26 20 19 19 18 14 14 12 22 28 24 34 35 32 31 34 34 39 39 38 47 50 49 43 42 38
70 69 72 72 73 71 66 47 53 47 42 35 33 37 47 52 49 47 41 34 33 30 29 25 19 15 14 15 15 14 11 13 28 27 32 37 29 30 31 33 35 41 43 49 49 51 49 46 41
70 73 71 70 68 66 63 35 44 42 40 33 42 48 52 53 51 48 40 35 35 31 28 25 21 14 11 11 12 13 12 11 17 34 29 34 37 43 38 40 40 43 49 50 48 48 49 50 51
70 71 73 70 66 59 59 31 42 42 33 44 51 53 54 54 52 48 41 37 35 30 28 25 23 15 12 9 9 11 7 8 11 33 34 37 39 47 45 48 52 53 51 50 51 53 53 52 50
68 70 72 65 55 57 48 34 44 37 44 55 55 57 55 55 53 47 40 37 34 31 28 27 24 19 13 11 9 8 4 5 4 21 40 42 40 46 51 54 59 57 56 57 57 59 60 56 55
71 74 71 57 58 53 39 33 41 40 52 58 57 56 55 55 52 43 39 39 37 32 31 27 23 21 17 13 8 5 2 1 3 2 22 39 46 51 47 57 60 59 59 60 55 55 55 55 53
72 70 61 53 54 40 31 36 43 49 54 53 55 56 53 50 48 45 45 44 38 35 35 32 27 23 20 17 13 8 3 3 3 3 1 10 33 43 53 59 64 65 60 60 58 54 53 51 50
72 66 56 50 45 30 30 46 44 53 53 52 55 57 51 50 48 48 46 42 40 37 38 34 31 25 22 17 18 14 9 6 4 3 7 5 4 9 23 30 45 55 55 53 58 59 58 59 58
66 60 52 51 40 30 35 48 46 55 55 51 55 57 53 50 49 47 41 36 36 36 37 36 34 31 29 25 22 22 19 13 8 5 2 6 7 5 6 6 15 24 35 48 50 52 54 55 57
66 59 56 50 39 33 41 51 50 60 55 52 53 56 54 50 47 44 41 39 35 34 36 35 36 34 31 31 28 24 24 21 18 14 10 9 8 7 7 8 12 13 13 18 27 32 36 38 44
67 60 60 49 37 36 47 55 54 60 53 54 54 57 56 53 49 46 40 36 33 32 34 34 38 37 37 36 33 30 26 25 24 22 19 16 14 15 12 13 11 12 14 16 18 20 20 21 23

GFSSGP_250_spd_081.txt.gz
Wind_Speed
50 50 51 50 49 49 55 54 49 49 47 49 48 49 49 51 53 53 51 49 52 54 55 58 60 56 52 51 50 50 50 52 54 54 57 58 60 61 63 66 69 74 77 81 82 82 83 84 85
52 52 52 51 50 52 58 57 52 52 50 50 51 49 48 50 53 51 50 52 51 52 52 52 59 61 54 49 47 46 46 46 45 47 50 53 54 53 55 58 61 61 63 68 73 76 81 82 83
54 53 54 53 52 55 59 61 55 54 55 55 55 56 54 57 62 60 59 56 54 57 57 58 56 58 58 52 49 46 43 37 37 41 45 44 44 45 47 52 54 57 58 58 60 64 69 70 74
58 57 56 54 53 58 64 63 60 59 61 61 58 54 56 63 62 59 59 59 59 57 58 61 58 53 55 58 52 44 39 34 33 41 42 36 35 37 38 41 43 48 53 56 57 57 58 60 63
63 59 57 56 58 61 69 66 65 67 66 63 59 57 59 63 63 61 60 62 66 64 65 64 62 56 50 54 51 45 38 29 33 37 34 30 29 30 22 27 34 39 45 50 53 56 56 54 52
68 64 62 61 63 66 72 74 70 69 69 68 63 64 64 67 65 65 64 63 69 66 65 64 57 56 51 51 48 42 33 25 31 27 24 15 9 12 11 15 17 17 29 41 48 49 50 49 47
61 63 59 62 63 66 77 75 71 70 69 68 67 70 72 74 72 67 66 67 71 66 65 58 56 56 54 50 47 37 24 26 28 16 21 29 26 29 29 26 18 20 22 23 37 39 39 40 40
59 55 50 58 61 65 79 68 68 73 71 69 71 68 70 72 73 72 72 69 75 70 64 59 58 57 55 50 44 35 23 30 33 27 41 40 41 38 35 28 17 23 24 20 22 25 25 26 26
64 62 61 63 69 72 76 71 73 70 69 71 70 69 68 68 70 70 68 72 75 66 62 57 59 60 55 49 39 34 27 32 38 36 54 50 49 45 41 32 27 27 26 21 19 20 18 17 15
64 63 63 68 72 71 75 73 71 69 73 74 72 69 70 72 71 73 76 76 76 69 59 60 62 62 54 42 38 34 30 34 38 40 58 57 52 41 45 32 23 22 29 20 19 22 20 18 15
70 62 68 67 72 76 72 71 74 77 75 75 74 71 70 68 66 69 74 76 74 61 60 62 61 58 45 36 37 32 35 33 42 48 52 61 53 42 43 43 37 29 26 32 27 22 21 18 15
71 66 66 70 69 68 70 71 71 72 69 75 74 72 69 71 75 78 74 74 76 72 70 64 54 45 35 37 32 33 35 33 40 41 45 65 58 44 46 51 44 39 33 29 25 25 23 19 21
62 62 61 63 67 69 66 65 72 66 71 74 69 69 73 77 73 71 74 76 78 62 64 53 42 35 35 35 30 32 30 33 35 41 45 66 62 54 50 48 46 46 39 39 35 31 30 13 20
63 60 62 62 67 64 59 59 58 63 70 73 72 70 75 73 73 68 61 66 64 54 50 39 34 35 32 30 29 29 29 30 31 36 42 54 61 60 58 54 52 49 42 43 44 39 32 25 20
64 63 64 64 66 63 58 53 57 61 70 74 74 74 73 64 56 57 62 60 46 41 38 31 36 36 27 25 27 29 26 27 28 32 36 45 50 53 55 57 57 50 50 46 45 45 44 38 22
68 66 64 65 60 62 60 51 57 61 63 68 71 71 66 54 51 51 54 53 39 37 30 35 39 29 22 23 26 25 22 25 27 31 33 45 45 49 49 54 55 54 52 49 44 38 40 37 32
71 66 64 64 64 65 62 52 58 64 68 68 70 66 57 53 50 51 49 41 37 31 33 40 35 26 21 25 25 23 22 25 24 29 35 39 42 42 47 35 47 54 50 48 46 42 40 27 33
69 68 68 66 69 69 59 54 61 63 66 63 61 59 55 47 49 46 38 36 38 35 40 40 32 22 23 21 21 21 18 17 21 28 33 39 37 40 42 48 47 48 42 50 48 47 38 36 36
65 61 58 64 66 64 59 58 63 67 68 68 68 64 61 48 47 35 37 38 35 40 42 37 31 24 23 19 20 18 18 14 19 22 30 34 38 30 35 28 34 40 45 52 46 46 40 41 43
63 62 64 67 66 65 60 60 67 69 69 66 69 66 58 46 39 35 36 35 40 42 41 35 26 26 21 18 21 19 18 13 11 24 28 30 30 34 35 26 33 37 44 43 41 42 43 44 42
72 66 67 66 62 62 63 60 66 68 70 71 71 63 52 43 37 37 40 41 45 44 40 32 27 25 18 16 16 19 19 14 15 26 30 33 33 35 31 28 36 37 34 40 43 47 45 45 46
65 69 67 67 62 62 64 63 68 73 76 68 65 52 44 40 39 45 40 46 47 46 37 31 29 26 17 14 11 13 18 19 16 21 33 36 36 33 29 31 32 35 38 43 46 43 45 46 47
69 63 64 65 67 64 67 70 69 73 72 62 52 44 44 39 44 43 49 49 45 41 37 33 31 25 18 16 12 10 13 16 16 14 34 36 38 38 36 33 35 34 35 35 39 42 42 43 46
71 73 74 70 66 66 70 74 72 73 64 48 41 38 40 42 46 47 49 47 44 40 37 35 30 24 21 17 11 8 8 9 8 12 35 37 42 43 38 38 39 48 48 44 41 45 46 52 51
67 66 67 67 68 72 73 70 70 65 54 35 35 38 40 47 47 52 51 49 47 45 40 37 31 26 22 18 12 8 6 6 2 7 23 39 40 47 45 44 50 51 53 49 55 55 54 55 56
72 71 71 72 72 71 70 68 61 51 34 31 37 40 43 49 51 55 53 51 50 47 41 37 33 28 23 20 17 13 8 5 8 7 11 33 44 44 50 53 56 58 59 61 64 62 60 56 56
75 74 75 75 73 69 66 56 44 40 31 29 37 42 51 54 56 55 54 51 50 43 38 36 34 29 25 23 20 18 14 10 8 9 13 15 32 49 50 53 60 60 61 66 69 70 69 67 63
71 72 73 68 67 65 57 43 32 38 28 36 44 51 54 57 58 56 54 50 49 45 40 37 37 33 29 27 26 23 21 16 13 9 10 18 19 28 46 55 57 60 61 63 62 64 66 64 65
69 72 71 66 61 56 45 36 28 41 28 45 53 56 57 59 59 57 52 50 49 46 43 41 41 37 32 31 31 29 25 21 20 18 11 10 14 17 14 24 39 56 64 68 68 69 68 68 68
64 65 65 62 57 49 42 39 30 39 37 55 58 58 59 59 59 56 53 51 49 47 44 43 42 39 37 36 35 34 30 28 25 24 23 19 17 19 17 16 17 20 26 33 38 43 48 49 48

GFSSGP_250_spd_084.txt.gz
Wind_Speed
55 54 55 55 53 49 51 55 51 48 48 51 47 48 49 50 53 52 52 54 54 55 55 55 56 58 55 56 55 53 46 44 47 51 54 58 62 63 64 69 71 72 73 74 78 79 80 79 79
52 55 54 50 47 48 54 59 54 50 49 50 50 49 51 50 55 54 53 56 59 58 56 55 56 56 58 54 56 58 54 46 45 44 49 52 55 57 60 61 63 62 63 66 66 73 78 78 79
52 55 54 50 50 50 58 60 55 52 53 52 53 53 53 57 59 56 58 59 61 62 56 56 58 58 57 59 57 54 53 47 45 42 44 48 49 52 52 51 54 57 56 57 58 62 66 71 74
58 58 54 51 52 56 62 63 61 57 56 58 56 55 58 62 63 62 60 59 64 65 60 59 61 61 60 59 59 58 53 47 44 42 40 41 40 38 40 36 38 41 38 39 47 54 56 60 64
60 59 58 55 58 61 68 67 63 62 61 61 59 60 62 65 63 64 64 62 64 69 67 64 66 64 62 61 61 57 51 50 45 42 34 36 26 28 26 22 20 19 19 31 37 44 49 52 54
63 62 60 61 62 64 68 70 66 66 64 62 63 64 68 71 65 58 61 63 66 71 72 70 69 67 68 64 64 58 52 49 42 35 28 24 20 18 16 11 13 11 18 19 22 32 44 47 50
61 62 63 63 66 67 74 76 72 69 66 68 66 67 72 70 69 66 67 68 67 69 67 67 66 66 63 63 65 60 55 49 41 34 24 22 27 27 22 27 30 21 23 24 25 29 30 40 43
69 65 59 56 61 61 75 76 73 66 68 68 66 67 71 66 65 67 71 70 66 71 68 64 64 65 67 66 66 62 54 45 39 33 28 36 44 36 34 37 32 33 30 29 28 25 25 32 33
67 73 67 66 61 64 71 69 64 64 70 69 66 64 64 68 69 71 73 72 73 71 69 68 70 71 69 67 61 62 52 43 37 35 35 49 49 49 40 39 39 39 31 25 27 26 24 24 27
58 65 70 71 70 69 70 72 71 70 69 66 64 65 67 70 71 73 73 74 75 71 68 62 66 71 68 56 57 57 49 39 38 39 36 51 54 56 47 43 46 39 30 35 29 25 20 25 21
60 57 72 72 70 71 70 72 72 66 66 67 69 68 67 71 73 72 72 72 71 70 76 74 70 71 65 57 55 50 42 38 39 39 34 50 59 59 52 53 44 40 37 37 24 23 21 22 19
61 63 66 68 71 73 70 74 67 67 70 67 67 65 66 68 68 69 72 73 73 76 81 76 66 68 64 56 50 44 36 36 38 37 35 46 59 63 54 59 47 41 30 27 32 26 29 25 22
60 61 65 66 67 67 65 66 71 69 65 65 62 61 64 66 66 68 69 73 77 80 81 71 64 62 56 47 43 35 35 34 34 35 38 45 50 57 61 61 45 45 35 31 34 32 31 28 24
64 64 62 65 57 64 65 61 65 63 64 60 63 61 59 61 65 67 71 75 77 78 78 67 55 54 39 37 33 33 34 33 34 31 36 40 46 50 67 66 47 46 45 44 37 37 34 30 24
71 75 70 65 69 59 59 55 59 62 63 61 59 59 62 60 61 64 68 75 77 81 70 61 49 43 31 30 29 33 32 31 31 31 34 39 42 49 58 71 58 47 49 47 50 40 38 33 30
72 74 74 71 68 67 62 62 61 62 66 63 61 58 58 61 62 69 70 68 67 67 61 46 43 34 30 25 31 33 30 26 28 31 33 35 40 48 54 69 68 56 53 57 55 50 46 41 38
71 70 69 70 71 69 64 62 60 68 62 60 59 60 59 59 64 69 68 65 62 59 53 41 37 32 27 30 34 32 25 25 28 29 30 33 37 43 55 57 69 58 58 60 58 56 53 47 42
73 69 69 71 74 63 63 60 62 61 62 66 66 62 64 63 67 72 70 64 58 53 44 41 33 32 30 35 31 27 23 25 21 26 30 32 34 40 48 53 60 59 56 57 61 60 56 48 39
70 71 72 75 76 69 60 57 63 64 66 65 67 64 63 66 71 74 68 62 53 45 39 37 36 34 35 36 29 23 23 21 13 18 29 34 34 42 47 51 43 45 49 61 58 57 51 45 41
75 72 74 77 78 69 64 57 57 57 58 61 61 62 66 70 74 70 69 60 45 41 37 37 39 38 37 33 24 23 22 21 16 13 23 35 40 42 43 42 41 44 44 45 47 52 44 45 45
79 75 78 72 76 78 66 61 59 60 65 66 63 65 70 75 72 68 60 51 38 38 35 43 40 39 36 30 23 24 19 21 19 15 21 27 35 40 39 41 35 37 46 44 46 42 47 50 43
78 75 71 66 70 72 70 63 57 67 65 60 62 66 72 70 68 60 55 42 37 37 44 45 42 39 34 25 24 17 12 15 22 19 17 25 36 41 42 42 36 39 37 45 50 49 46 45 43
75 73 72 65 64 60 68 69 71 71 68 67 69 75 76 67 61 60 47 39 37 42 48 46 42 37 33 25 23 13 8 12 19 21 19 28 35 34 34 36 36 34 40 47 46 46 44 42 38
72 67 59 57 60 55 60 65 72 65 67 68 75 73 68 70 56 49 41 35 41 50 49 47 43 38 32 26 23 13 8 13 16 17 22 31 37 40 38 40 36 36 40 43 40 40 42 31 32
72 63 63 63 62 59 61 63 68 64 67 72 76 69 63 51 44 42 37 39 52 54 53 50 44 37 30 29 25 15 12 11 13 15 20 33 38 40 42 43 39 39 45 39 43 46 45 40 42
68 69 66 64 64 62 61 63 69 69 69 76 68 66 48 40 40 37 38 48 57 55 54 50 43 37 31 31 27 19 16 12 14 11 18 34 43 40 42 43 43 45 47 45 45 45 46 51 53
64 71 69 66 65 64 65 70 67 67 64 66 65 50 38 37 37 37 43 54 57 56 54 49 44 38 34 32 30 22 20 16 12 13 13 25 43 44 44 46 45 43 50 57 59 56 52 56 61
63 66 68 71 65 61 61 61 62 63 64 62 60 40 36 38 37 41 52 58 59 56 53 50 44 40 36 36 32 26 23 20 16 12 12 16 35 44 45 47 47 45 49 54 62 61 59 60 66
64 64 64 65 62 63 64 65 66 63 59 48 44 31 32 39 40 48 57 60 59 55 53 50 46 43 36 39 38 32 29 24 22 18 15 13 21 28 42 49 49 52 53 53 61 64 66 70 69
62 59 62 65 64 61 59 61 61 57 46 34 32 26 31 40 47 54 57 59 56 54 53 51 47 44 41 42 42 37 31 26 25 24 24 21 17 23 25 27 45 54 57 60 63 65 67 70 71

GFSSGP_250_spd_087.txt.gz
Wind_Speed
55 58 59 62 61 57 57 58 56 54 53 50 50 50 50 50 51 52 47 48 48 50 53 53 52 53 54 55 55 52 51 53 53 53 52 49 51 55 58 59 60 62 67 70 73 75 76 78 79
50 52 53 56 53 54 54 57 55 57 50 51 51 52 53 50 51 52 48 48 50 53 57 55 54 55 56 56 56 55 54 54 59 55 51 49 50 49 50 52 55 55 58 59 64 65 69 74 75
53 51 51 52 50 50 55 60 57 55 51 53 52 51 52 54 53 53 51 52 53 58 60 57 57 57 56 57 59 59 60 62 56 57 54 46 46 44 42 42 46 46 49 52 54 56 58 64 66
52 52 52 52 51 53 56 60 58 61 58 57 56 54 53 54 55 56 56 56 58 62 61 58 60 59 59 60 63 65 65 63 62 57 51 45 42 34 35 35 34 33 32 36 40 45 41 45 52
54 52 53 54 52 56 59 62 62 62 62 62 60 58 55 57 57 60 59 60 62 66 65 59 55 57 61 63 64 65 64 61 61 56 47 42 39 33 28 26 15 7 6 7 15 22 31 34 42
39 53 51 56 59 61 63 62 69 65 67 64 63 61 59 59 60 61 64 65 67 68 71 65 60 62 64 63 62 63 60 60 59 56 49 43 36 32 28 20 19 18 16 16 17 17 28 26 30
47 48 43 50 57 66 67 64 75 70 69 67 64 58 64 64 63 67 67 66 72 71 69 63 66 69 67 65 65 62 61 61 64 58 55 43 35 32 25 31 25 28 30 29 26 22 28 33 33
54 58 52 47 53 62 65 64 79 71 66 65 60 64 69 66 67 71 70 70 67 65 68 70 70 70 71 68 65 64 64 65 63 61 56 42 37 39 40 38 33 36 35 39 29 28 17 34 34
49 45 45 50 55 55 61 69 72 64 61 62 57 60 65 62 67 71 71 71 68 68 71 73 73 73 75 70 66 62 61 63 62 61 57 45 40 42 49 46 36 41 35 37 35 36 24 32 24
55 50 45 56 57 56 58 63 75 72 71 64 57 60 64 68 68 71 69 68 68 71 73 73 73 73 71 65 66 68 70 64 62 59 55 41 43 49 53 52 47 44 39 40 41 39 37 22 26
62 56 59 58 60 61 59 58 71 73 70 70 69 69 70 69 70 70 72 70 70 72 74 75 73 65 66 69 74 75 66 59 57 54 46 37 49 54 55 55 53 47 44 45 45 39 33 32 24
63 60 64 64 61 59 63 62 62 68 71 68 67 66 65 62 68 71 69 70 69 71 72 72 70 67 68 75 76 72 61 57 49 47 42 36 52 55 58 56 55 49 46 45 46 40 40 32 19
66 66 68 66 67 62 64 62 61 55 62 71 73 71 66 64 64 64 64 67 70 68 69 69 68 70 74 79 75 64 51 49 42 39 40 42 51 53 59 56 54 53 48 45 43 44 40 33 27
72 78 71 73 72 67 65 63 59 58 60 61 65 61 56 58 58 59 63 65 66 68 68 68 72 73 76 70 66 49 46 38 38 36 42 42 48 47 56 56 50 57 47 51 43 34 34 35 29
71 78 81 75 74 71 70 61 61 63 58 57 61 63 61 54 59 60 64 66 65 66 65 66 70 70 70 57 52 44 38 34 32 36 37 41 44 42 50 60 49 51 50 57 44 38 36 40 35
72 73 75 78 75 72 74 64 67 69 64 62 58 56 56 57 59 62 58 60 61 61 67 69 74 69 65 56 43 37 33 34 28 30 35 38 41 42 44 50 58 59 53 59 47 45 40 39 38
68 67 74 76 73 72 71 67 67 63 63 64 60 60 60 60 62 63 60 59 62 66 70 73 70 67 59 49 37 33 32 24 28 33 35 36 39 42 45 47 55 57 56 56 52 48 47 42 43
69 67 70 74 76 74 75 69 67 66 68 62 57 63 64 66 68 67 64 64 63 69 74 71 68 63 54 42 33 32 25 24 29 30 31 35 36 39 42 47 51 54 54 61 52 51 52 51 51
64 66 69 73 74 72 74 67 64 68 68 61 64 63 65 64 64 66 66 65 64 72 74 71 67 52 45 34 33 30 25 27 28 28 30 34 37 40 41 45 52 55 54 55 62 58 55 55 54
61 65 66 70 74 69 68 63 63 70 70 69 65 63 63 66 66 62 64 64 68 73 71 62 57 43 35 34 33 29 27 31 29 25 26 30 36 40 40 41 50 58 56 56 57 58 61 61 59
59 62 61 63 68 63 64 62 69 68 70 73 64 65 62 59 60 63 68 72 73 72 65 59 50 32 33 37 33 30 30 30 25 26 26 23 30 38 39 42 43 54 58 54 61 62 57 56 59
57 61 58 61 63 62 61 59 68 71 72 73 68 64 59 61 63 65 70 76 73 69 66 50 42 31 37 38 35 31 31 24 26 29 28 25 25 30 38 44 43 44 45 46 48 49 61 61 52
58 59 59 60 60 62 61 59 67 75 69 67 68 65 63 66 69 67 69 74 77 70 61 43 35 39 42 39 35 32 25 22 24 24 29 25 22 28 41 44 48 44 43 45 44 46 49 46 41
58 57 59 59 60 56 61 60 65 69 65 68 72 67 65 68 71 71 76 80 74 62 56 41 38 46 43 41 35 32 23 23 25 19 21 25 22 28 36 43 42 42 44 42 43 47 51 53 49
57 57 58 56 57 56 60 58 61 59 62 53 60 72 76 76 77 79 79 80 70 62 48 42 48 49 46 40 36 30 24 25 21 18 17 22 23 32 37 45 43 44 43 44 43 48 52 56 49
57 57 56 56 55 54 61 51 52 51 55 61 64 64 67 72 76 81 83 66 60 45 42 45 52 50 46 41 36 28 26 27 18 17 15 16 22 39 38 40 41 45 43 40 43 47 47 49 45
58 55 55 52 53 55 56 55 58 57 58 61 61 64 65 68 74 69 55 53 38 37 46 54 54 53 47 41 37 30 30 28 18 16 16 12 18 42 36 38 40 37 41 40 39 43 45 44 46
58 57 56 56 54 55 59 58 59 61 62 60 61 62 64 69 66 54 42 34 34 42 49 56 56 53 47 41 37 33 33 29 20 15 14 14 10 41 35 39 40 36 39 42 46 42 46 44 48
59 61 59 57 59 58 61 58 57 68 65 62 62 65 69 68 59 46 35 33 35 50 55 57 57 53 48 44 38 35 35 32 24 18 15 14 15 19 31 40 40 40 41 45 47 53 50 49 55
59 63 61 58 56 58 62 65 62 61 62 59 61 65 62 51 47 40 33 36 45 56 58 58 58 54 50 45 40 36 34 34 27 24 20 18 16 19 23 28 44 43 45 47 49 51 57 58 61

GFSSGP_250_spd_090.txt.gz
Wind_Speed
39 46 49 52 51 49 51 57 62 67 64 61 54 57 54 55 53 50 47 48 49 48 49 51 52 51 50 47 47 45 48 50 49 46 46 49 52 50 47 46 49 49 51 52 56 59 60 62 65
34 40 45 46 42 41 46 52 57 63 61 50 51 55 52 55 48 49 50 46 48 47 49 53 53 52 51 50 51 53 52 56 54 52 49 53 52 48 42 40 40 44 44 45 49 52 54 54 57
33 34 33 43 40 44 49 53 57 59 50 49 51 55 54 51 50 49 48 49 45 49 50 55 56 56 54 51 52 57 53 56 56 58 58 59 56 49 42 40 35 34 34 35 38 41 41 43 46
36 33 32 31 38 47 51 54 59 55 48 51 54 55 53 53 53 54 47 53 48 51 54 61 57 59 56 57 56 57 58 59 60 62 61 60 59 51 44 38 32 29 24 19 21 24 29 30 34
38 38 32 31 40 47 52 55 59 54 52 55 54 57 57 55 54 56 53 53 52 54 56 62 60 58 57 60 59 58 61 61 65 64 63 61 59 49 43 36 27 18 14 19 17 7 12 10 17
42 42 36 32 32 39 45 51 54 58 56 58 58 59 59 55 55 61 54 58 59 57 59 63 62 59 59 62 63 60 60 64 66 67 68 62 58 52 41 35 30 29 28 31 27 20 20 11 23
47 46 41 40 42 45 49 52 48 48 62 62 61 61 61 60 60 59 61 61 62 62 63 66 65 64 64 63 60 61 64 67 69 70 68 61 58 56 42 35 33 37 34 33 32 25 23 19 14
49 50 45 47 47 45 53 56 47 43 59 61 58 57 63 62 61 55 64 60 63 64 66 70 69 66 64 63 63 67 72 72 73 70 66 59 57 60 46 37 38 44 35 36 34 32 29 26 21
59 51 45 46 54 53 54 53 49 48 51 49 53 61 67 57 54 60 64 61 65 64 65 69 72 70 65 64 67 71 74 75 73 60 53 60 61 60 47 41 43 49 40 41 41 35 34 34 32
63 59 56 55 57 57 58 51 46 55 55 52 52 49 59 59 56 57 59 61 61 64 67 70 71 70 68 71 71 71 72 73 67 62 64 64 63 58 51 42 47 57 44 45 45 36 36 38 41
66 58 59 53 51 60 63 55 57 56 57 58 55 49 47 62 65 65 62 69 66 68 68 73 72 68 70 70 67 68 69 70 68 71 69 60 56 53 48 44 49 61 53 48 44 38 35 37 39
52 55 56 57 59 62 61 61 60 60 57 60 58 53 51 56 63 61 65 71 72 71 71 72 70 67 64 65 64 64 67 74 77 70 59 56 48 46 44 45 53 61 58 51 48 41 42 41 38
61 56 59 65 69 72 71 66 54 60 62 59 59 55 50 48 52 62 61 67 68 69 71 70 61 62 62 60 63 65 73 76 70 59 50 43 42 42 41 45 51 57 61 48 52 43 45 45 44
68 67 67 63 68 80 79 77 69 61 67 62 59 57 50 49 47 51 58 66 64 64 64 61 61 61 61 64 64 68 75 81 60 47 41 37 37 40 41 42 47 47 55 48 56 45 42 47 46
71 72 76 80 87 85 84 79 80 75 71 69 61 56 54 48 45 47 52 52 54 56 58 51 64 63 61 59 67 74 76 73 56 41 36 32 37 38 37 36 42 42 46 48 53 49 47 45 44
76 81 84 85 92 83 88 73 81 82 77 72 62 54 55 56 50 51 53 58 58 55 57 54 62 62 64 68 69 72 68 63 46 34 33 33 39 40 41 38 38 41 37 46 47 45 46 45 47
86 82 84 82 87 85 85 74 79 84 80 68 65 61 58 60 54 56 57 58 58 59 59 56 57 63 61 66 68 73 70 54 39 33 32 33 36 38 38 43 42 39 40 46 38 48 46 44 40
83 84 81 77 79 84 77 72 74 81 77 69 64 58 56 52 52 59 63 60 57 58 61 62 62 67 71 68 67 66 62 41 34 29 28 28 25 32 37 41 43 43 44 45 44 50 48 48 47
83 80 75 71 72 76 65 66 68 77 74 68 57 64 58 48 52 54 53 61 62 64 67 68 69 71 64 64 68 64 51 35 29 28 26 25 28 34 39 42 44 47 51 49 50 55 51 49 47
75 73 73 67 66 65 63 63 65 73 73 70 68 69 66 60 50 51 55 58 58 59 62 60 62 64 64 70 69 62 38 30 30 28 26 26 32 33 39 41 44 49 50 49 51 55 56 52 54
72 71 69 64 60 58 59 57 62 66 73 75 73 71 66 62 59 60 55 58 60 59 61 61 67 67 69 70 62 50 32 33 32 28 26 29 32 31 34 38 42 47 50 54 53 52 55 57 57
72 70 64 58 53 52 57 52 56 63 66 67 75 70 63 60 55 56 55 58 64 59 62 70 66 65 67 66 52 40 32 37 31 30 29 33 33 34 31 34 43 45 49 55 57 55 57 59 60
68 66 59 52 51 49 53 51 53 60 61 64 66 61 58 55 59 54 66 61 67 59 66 70 68 68 68 59 46 36 39 36 32 31 32 31 30 33 29 30 36 42 44 55 58 57 60 63 62
61 61 57 50 49 45 50 52 50 55 55 55 56 57 56 56 59 62 61 61 61 68 66 70 70 75 73 67 42 40 43 35 32 28 29 24 27 30 24 26 31 40 41 41 54 57 58 57 58
57 57 55 47 45 45 51 48 47 47 47 49 53 57 54 57 57 60 62 59 62 67 65 68 76 77 76 63 42 46 42 34 30 28 24 22 24 28 27 26 33 41 41 37 37 42 51 53 53
50 53 49 47 44 44 46 42 46 41 43 46 48 46 48 52 57 62 65 67 68 75 73 76 81 76 76 53 47 50 41 36 30 28 21 23 21 26 24 26 29 35 38 43 38 40 41 43 45
48 46 51 45 42 41 43 43 43 42 44 49 40 42 45 47 49 52 59 63 70 75 74 73 65 60 52 42 51 48 41 36 32 26 22 21 19 21 25 28 34 35 39 36 37 41 41 42 45
43 46 44 45 42 41 43 45 37 36 49 53 53 50 45 50 56 59 62 64 68 72 60 57 50 40 37 47 53 45 42 35 32 25 23 22 17 14 20 30 31 39 39 36 37 38 42 44 43
42 41 44 46 42 42 44 44 39 47 51 49 50 49 50 54 57 59 61 63 63 62 54 44 33 36 42 54 51 45 42 37 32 25 23 20 21 16 17 30 31 36 34 35 39 44 45 45 40
41 42 45 44 46 47 44 44 40 50 68 62 51 53 52 53 55 58 62 66 64 57 41 34 42 45 50 53 48 45 42 39 33 27 26 22 18 17 18 24 31 38 38 36 38 39 40 44 44

GFSSGP_250_spd_093.txt.gz
Wind_Speed
40 41 39 40 40 35 31 40 47 56 62 61 61 57 62 67 65 62 49 47 45 45 45 47 51 54 53 51 48 46 44 42 40 44 48 49 51 51 51 54 53 46 48 49 45 44 44 47 46
38 39 42 34 32 36 35 43 49 55 54 43 44 50 57 63 59 51 41 45 43 44 45 46 50 54 52 49 47 46 44 44 48 49 49 48 50 50 52 52 49 43 40 35 37 35 37 37 40
36 38 38 37 28 32 39 39 49 53 46 33 36 45 53 56 48 40 39 45 43 43 44 46 47 52 51 48 47 48 47 49 51 53 53 52 52 53 54 52 44 43 37 32 27 27 19 25 31
43 40 38 35 36 34 34 41 49 50 40 34 39 46 56 53 49 36 37 43 47 44 46 48 50 53 52 47 49 50 50 48 53 56 58 56 55 56 58 55 47 37 33 28 27 28 26 25 22
45 47 42 35 40 42 38 40 43 47 41 36 41 50 58 53 49 35 37 42 53 51 51 52 53 57 54 48 49 52 52 52 54 56 59 60 60 62 63 60 51 37 33 33 35 35 27 18 11
47 52 46 47 43 41 43 45 45 45 45 39 32 45 55 49 44 46 47 46 52 57 55 56 57 60 54 50 51 53 53 57 59 59 59 58 60 65 65 64 50 39 36 40 41 40 31 26 17
49 52 50 50 50 45 49 50 50 47 45 39 43 41 40 45 44 47 49 51 58 59 59 59 58 62 58 53 55 56 58 60 62 60 61 61 63 65 68 63 50 42 40 41 42 44 41 36 28
55 51 53 59 58 52 54 54 49 50 53 51 50 48 46 43 46 45 48 52 59 63 62 61 61 64 59 54 55 56 60 63 64 62 64 65 68 68 66 55 48 50 41 42 41 45 46 42 29
58 51 45 48 52 57 61 60 58 57 56 56 55 52 49 46 45 44 48 54 59 68 61 60 59 59 55 54 57 58 63 65 66 66 68 66 67 66 64 60 58 55 45 43 44 46 47 44 35
65 66 65 67 66 67 67 66 63 62 56 54 59 56 56 51 45 46 50 47 48 55 58 58 54 55 54 55 58 62 64 67 67 67 65 64 68 70 67 69 65 60 53 45 46 45 44 46 39
65 62 68 68 67 64 64 67 64 61 62 60 61 60 59 53 52 49 50 54 50 55 61 63 58 59 63 63 63 64 67 65 65 62 62 65 67 68 74 66 57 55 51 46 46 48 48 41 41
72 73 71 66 72 72 68 66 65 62 62 62 67 65 64 60 57 54 50 49 52 53 61 62 59 64 63 60 63 66 65 62 58 65 66 62 70 71 63 53 46 47 46 45 46 53 49 42 45
74 75 75 73 70 66 67 65 68 66 68 69 65 69 68 65 58 55 56 51 49 54 50 57 58 61 62 61 66 65 62 56 61 60 63 66 71 62 54 35 31 38 43 44 44 53 48 42 41
77 81 79 79 80 71 65 64 71 70 77 77 78 71 67 67 62 58 55 51 49 54 48 51 58 60 55 51 54 50 55 56 58 64 68 70 74 56 45 31 32 34 39 38 42 45 45 45 40
82 77 79 80 78 73 77 72 70 77 84 82 77 81 78 68 65 57 57 54 49 52 43 32 47 44 43 45 49 49 54 59 59 62 68 76 61 49 39 30 33 27 30 37 40 39 41 46 46
78 79 80 84 80 71 79 71 74 76 82 88 92 84 82 82 70 62 57 58 50 51 40 34 42 51 46 48 49 52 57 57 63 66 73 66 52 39 33 38 40 35 35 36 38 38 44 46 50
83 83 83 79 82 78 85 79 75 88 93 95 97 93 81 81 81 73 63 59 57 52 46 38 42 47 53 44 52 53 58 63 67 70 72 63 42 35 31 38 43 38 37 39 39 38 43 49 47
87 90 88 81 81 83 79 81 77 82 80 82 84 85 80 78 81 77 62 57 56 54 50 43 44 49 55 42 50 59 65 61 61 68 70 52 37 32 31 37 43 40 38 38 38 38 42 48 47
86 89 86 80 80 81 75 72 71 72 72 71 74 77 75 70 77 73 58 57 46 48 46 39 48 58 58 51 58 60 53 59 63 67 62 42 30 27 32 41 46 41 43 39 40 41 46 51 49
91 90 83 76 79 80 77 70 68 68 67 67 69 65 66 64 69 64 59 54 48 49 49 41 46 55 61 53 57 53 56 62 64 60 52 35 28 28 31 34 42 41 40 42 40 44 46 52 52
93 85 80 76 78 79 76 66 65 63 61 60 60 57 58 58 61 67 64 55 60 49 43 33 45 54 55 53 57 57 60 61 57 57 42 32 32 30 29 29 33 37 39 43 42 45 50 52 55
84 88 83 78 76 73 73 60 60 58 55 54 55 50 51 52 57 62 65 62 59 51 46 42 46 55 60 62 59 57 59 58 61 53 37 35 32 29 28 30 33 35 40 46 48 50 51 52 58
78 81 82 79 73 66 62 59 51 54 49 47 44 46 48 53 60 62 65 61 57 58 58 49 47 48 55 57 61 57 58 62 60 51 38 37 32 33 30 31 34 34 42 46 47 51 52 50 62
80 82 76 69 64 54 62 49 46 49 41 36 38 39 46 50 59 65 65 62 60 54 41 48 56 60 60 61 58 60 61 62 63 45 42 38 34 32 32 34 34 35 36 42 47 48 51 55 59
81 75 69 58 59 49 50 40 42 38 31 32 33 37 41 49 53 57 62 62 59 54 49 43 47 53 58 60 59 61 66 66 50 45 43 38 34 31 31 30 33 33 34 36 40 43 51 57 57
73 71 62 56 51 46 42 35 38 31 31 32 33 34 33 44 46 52 54 55 52 44 46 51 55 54 59 60 58 60 61 59 44 39 43 36 32 30 25 27 31 31 28 33 31 35 45 59 51
62 55 55 46 44 37 36 34 33 27 26 27 33 41 41 39 42 46 45 47 44 45 47 48 51 56 61 68 66 53 54 51 43 44 41 36 29 26 26 26 29 29 27 32 33 31 29 48 55
55 52 47 41 36 32 33 34 24 19 28 39 42 40 40 37 36 42 38 40 44 48 49 42 31 31 43 46 51 58 46 38 40 45 38 33 29 25 23 25 28 28 28 31 34 33 34 32 36
51 44 41 36 33 33 33 32 43 42 36 40 40 45 45 45 43 41 36 37 40 40 43 42 44 45 53 48 50 43 40 38 46 43 39 33 27 25 23 22 27 30 28 29 33 33 30 37 34
47 39 36 33 33 35 35 34 48 55 54 50 54 46 45 47 47 43 38 41 42 46 49 51 51 50 38 47 50 44 38 43 47 42 38 33 27 26 26 22 21 25 27 32 32 30 31 30 37

GFSSGP_250_spd_096.txt.gz
Wind_Speed
33 31 35 37 38 39 44 52 62 68 73 69 68 71 73 73 73 74 64 57 59 57 54 55 53 55 55 53 50 48 49 50 50 48 47 48 47 50 52 51 51 49 48 46 46 47 41 41 39
32 33 31 27 31 38 44 52 56 57 59 62 63 58 55 48 46 54 50 44 46 48 48 47 49 51 53 49 46 46 47 47 46 45 46 44 45 47 50 49 47 47 45 38 37 37 37 36 32
36 36 33 27 32 38 41 49 51 51 52 54 53 53 47 41 42 45 45 39 41 45 41 44 47 49 51 48 43 44 44 45 45 44 44 45 45 47 49 49 50 50 49 40 36 37 37 35 37
39 41 39 31 37 45 40 45 50 53 52 51 54 52 44 44 43 40 33 35 40 42 42 45 48 50 53 51 44 45 46 46 44 46 47 49 49 48 48 51 50 48 51 46 40 40 43 37 35
44 45 39 34 41 45 43 53 51 52 49 50 49 48 48 47 45 37 37 39 41 44 46 47 50 53 54 55 48 46 47 46 46 47 48 50 49 50 52 51 53 53 54 52 46 42 47 40 35
48 43 39 37 40 43 50 54 57 56 52 47 48 47 45 50 45 38 36 42 46 48 51 50 52 54 56 59 52 49 47 45 45 50 51 50 53 53 53 52 54 55 56 53 51 42 45 44 40
51 45 36 35 42 46 53 54 57 62 61 53 49 50 46 45 46 41 35 42 46 48 53 53 53 55 58 59 57 46 45 48 47 49 50 51 54 56 54 56 57 57 57 56 50 46 42 44 45
54 45 42 39 45 48 54 51 54 54 56 61 60 51 48 49 51 49 45 38 44 51 55 55 55 57 59 60 56 43 44 42 47 50 50 53 56 56 59 60 59 59 59 58 52 51 44 42 44
55 51 50 49 49 50 59 57 57 54 58 62 60 60 59 66 59 54 57 51 45 46 57 59 57 57 60 60 59 52 42 43 48 50 53 58 58 60 61 59 56 58 57 55 53 51 45 44 41
59 56 55 55 56 56 62 62 64 62 60 58 61 59 65 66 66 62 54 57 59 46 47 54 55 56 56 54 55 49 49 51 51 54 57 58 60 59 59 55 58 56 56 63 61 58 51 46 43
63 62 63 64 68 68 68 65 69 69 68 63 62 65 65 72 70 65 57 56 56 59 51 52 53 54 54 54 55 55 53 53 53 53 56 60 61 57 53 53 56 62 66 65 57 54 51 49 44
58 62 66 68 69 66 66 67 71 67 67 70 66 65 71 75 76 72 66 58 58 59 58 58 57 58 57 57 57 58 53 51 49 52 58 62 56 49 51 59 63 66 61 50 42 41 44 45 41
63 65 63 64 64 65 67 69 73 77 73 73 72 70 70 76 78 76 69 65 59 55 63 65 63 59 56 55 59 59 55 51 50 55 54 53 52 53 54 62 63 68 53 39 38 37 39 38 38
67 63 64 64 67 68 72 70 71 70 72 70 69 70 70 78 79 77 74 65 68 60 58 67 66 63 55 53 53 52 49 49 47 46 48 49 54 54 63 65 67 61 41 34 36 33 36 33 34
67 69 70 73 74 71 80 61 71 75 81 76 74 72 71 76 82 82 78 72 63 64 63 65 64 61 52 46 46 44 44 40 41 45 47 50 51 61 63 67 70 48 32 34 34 30 33 32 38
76 71 71 78 78 80 82 61 73 79 84 73 72 72 76 80 76 83 84 78 76 74 61 68 65 62 57 38 42 41 38 39 45 44 47 49 58 61 64 70 56 35 33 37 36 33 31 39 40
78 74 77 76 83 83 91 69 72 76 78 73 72 74 79 81 83 84 87 86 77 70 64 66 62 57 52 43 40 42 41 43 46 43 46 52 51 60 66 62 42 31 39 39 37 33 35 45 45
82 79 79 82 86 92 91 75 77 79 80 75 72 73 76 82 85 91 90 88 85 82 74 67 60 57 53 46 42 41 42 42 42 45 51 47 55 60 59 53 33 32 41 39 37 37 36 42 50
84 86 85 84 86 99 88 87 82 81 77 72 69 67 70 76 79 82 85 86 82 81 77 70 62 57 57 51 47 46 42 46 43 49 53 51 53 53 64 41 30 35 41 41 39 38 38 41 50
90 91 92 89 96 98 97 91 87 79 75 75 70 67 66 67 66 69 70 70 68 66 66 67 59 53 58 54 52 46 47 43 46 52 50 51 55 55 51 31 28 33 44 46 43 41 40 44 52
95 98 97 95 97 101 96 85 78 76 73 72 69 65 64 61 57 62 63 62 60 58 59 63 60 52 47 50 49 42 45 49 46 49 53 51 52 52 39 27 27 35 44 45 44 44 42 46 49
96 103 101 102 99 90 86 75 72 76 76 75 62 59 57 55 53 54 52 49 51 51 51 58 60 57 48 43 45 43 45 45 50 56 49 52 51 55 33 30 30 32 40 45 40 49 40 47 47
100 103 102 100 89 83 72 81 57 69 75 66 51 51 49 45 48 46 45 46 49 44 56 51 44 46 54 45 49 47 46 46 46 48 50 53 52 52 32 37 35 35 37 37 42 42 41 47 49
103 101 95 88 83 80 72 77 56 64 57 52 47 42 39 41 43 42 44 42 44 48 58 59 53 50 54 53 53 50 48 43 52 53 48 49 55 44 36 40 38 34 31 33 36 40 44 47 50
103 97 88 82 84 73 69 65 54 58 47 42 38 35 36 39 41 41 40 40 47 52 55 61 57 53 54 55 52 50 51 51 53 52 50 47 52 38 38 42 39 37 35 35 37 37 44 50 51
93 86 82 84 75 64 61 49 50 40 38 35 31 32 33 36 39 38 42 47 48 49 53 57 59 54 38 40 43 47 43 44 44 48 56 51 40 33 39 41 39 37 35 38 38 38 39 48 53
79 79 81 79 66 48 49 43 36 32 32 28 33 37 34 36 33 37 41 41 49 55 54 56 53 45 49 46 40 43 45 49 52 51 42 44 37 34 40 42 39 34 32 31 32 33 34 40 50
75 75 75 70 52 39 43 34 32 28 26 29 27 26 34 37 36 39 38 40 44 49 53 49 48 48 35 32 31 36 40 42 38 42 45 39 35 35 41 39 36 32 31 30 31 29 26 27 32
73 65 64 58 42 37 34 32 31 33 32 40 35 39 41 40 38 35 35 38 39 42 44 48 38 39 28 21 40 46 43 46 47 43 38 39 37 40 40 37 34 29 27 27 27 28 31 28 22
63 60 53 45 35 36 32 30 33 43 42 37 49 49 44 39 39 36 38 40 42 42 47 49 47 41 35 35 59 57 47 51 54 48 42 37 39 42 39 36 31 27 25 31 26 28 31 28 27

GFSSGP_250_spd_099.txt.gz
Wind_Speed
30 30 32 31 29 29 36 44 52 54 51 51 51 53 55 61 68 72 72 72 69 68 70 73 75 72 70 68 66 61 59 58 56 56 55 54 55 55 54 50 51 52 51 48 45 41 43 41 39
32 34 35 34 32 33 43 46 46 40 43 46 47 49 51 53 58 61 65 67 66 63 64 63 65 61 61 60 58 54 52 52 53 53 51 51 51 51 51 49 45 41 43 43 43 40 41 42 41
37 33 29 32 36 42 46 49 48 43 40 42 40 40 43 48 54 55 54 55 52 50 51 56 55 52 53 55 57 52 50 49 48 47 48 48 46 45 46 45 42 41 42 40 39 39 44 44 44
43 41 38 37 42 46 48 50 47 47 46 43 37 31 33 45 47 49 51 53 49 43 43 49 51 51 52 55 55 53 49 49 46 46 47 47 46 48 46 45 43 44 44 42 42 42 44 44 45
45 45 41 43 48 48 52 55 50 48 46 42 38 38 38 43 46 47 50 52 48 44 44 45 47 50 52 55 55 54 50 49 48 48 48 48 48 49 49 45 43 45 46 44 44 44 45 45 43
47 47 42 44 49 49 52 54 49 46 41 43 41 42 44 41 47 50 49 50 50 49 51 51 51 51 53 55 57 58 53 51 51 51 50 51 49 50 49 45 45 48 47 46 45 46 47 46 47
52 48 46 46 50 53 55 51 50 44 45 46 45 43 45 40 45 51 54 52 49 50 53 56 56 54 54 56 58 59 57 51 51 50 50 49 48 49 49 48 47 50 48 48 50 50 49 49 48
56 51 46 47 49 51 55 50 49 47 50 54 53 45 42 45 43 52 54 55 55 47 51 56 58 58 59 59 58 60 59 51 48 50 51 49 47 48 51 49 50 51 50 50 50 50 50 53 52
60 52 47 48 50 51 60 56 53 52 56 60 60 59 57 53 51 51 54 57 59 64 60 60 60 62 59 58 60 61 61 56 51 59 54 50 50 49 51 52 53 51 52 51 49 50 48 49 50
61 57 54 49 52 52 56 57 61 60 62 64 63 62 60 58 60 60 57 57 59 64 65 65 63 66 67 65 64 61 60 61 60 54 52 50 49 50 53 52 52 52 53 51 49 50 57 60 56
63 55 53 51 53 54 54 55 56 58 59 60 66 69 66 63 62 58 60 62 60 65 66 67 66 67 68 65 65 62 61 63 59 49 51 52 53 54 54 50 52 49 47 50 51 58 62 59 50
59 60 60 58 58 58 56 54 58 61 60 62 66 68 69 69 65 65 64 62 62 63 67 68 67 67 66 63 59 57 60 60 64 55 55 55 52 53 52 51 46 47 49 52 57 60 60 46 39
68 63 64 65 65 63 62 60 60 59 59 64 66 69 69 71 68 63 57 57 63 68 66 70 72 70 68 65 62 61 61 63 63 59 58 58 57 55 49 46 45 47 51 56 60 59 46 39 34
73 67 65 66 67 67 64 64 63 61 68 65 67 62 66 68 70 69 68 65 64 68 70 69 71 76 70 65 62 63 65 64 64 60 56 51 48 48 47 42 42 48 54 58 59 42 35 34 29
74 72 66 69 72 70 69 63 66 70 70 69 66 68 70 65 71 71 74 72 67 70 70 72 69 71 76 72 64 60 64 64 60 56 45 42 42 42 45 41 45 49 55 60 49 35 30 32 27
78 76 74 78 80 78 73 60 72 74 70 66 71 74 76 66 70 70 71 69 68 70 74 70 72 69 66 62 65 63 59 62 54 39 39 39 42 45 41 42 46 50 58 58 42 34 39 30 26
86 85 87 84 88 87 81 69 73 78 76 69 72 77 80 77 78 71 69 66 71 71 77 73 74 77 74 72 64 59 57 57 49 42 45 39 41 37 40 44 49 51 56 55 34 37 42 34 33
88 87 85 84 91 88 83 72 73 78 77 76 79 81 83 82 80 74 72 71 73 73 75 82 75 75 79 78 70 58 56 55 50 49 40 37 38 35 41 49 51 55 56 43 30 42 45 38 36
89 91 90 88 93 93 90 75 78 80 83 85 87 88 88 81 75 76 76 74 70 73 72 76 79 78 76 78 71 60 55 56 53 51 41 39 43 38 43 48 52 56 57 35 32 47 47 38 35
94 93 91 91 95 93 92 78 82 88 88 91 92 92 89 77 74 71 72 72 69 71 71 71 73 80 78 76 76 72 59 56 54 50 42 46 40 38 41 48 49 54 50 31 35 45 43 34 39
91 92 92 91 96 94 95 86 88 91 94 92 97 90 77 71 69 68 69 71 69 66 69 69 69 72 76 84 80 79 64 57 55 49 46 49 43 41 41 46 48 50 39 28 37 38 38 34 37
90 97 95 95 98 97 101 101 93 97 92 95 89 77 70 68 66 68 68 66 63 59 62 63 62 62 66 68 68 63 57 56 57 50 50 45 45 43 44 46 49 50 32 28 36 41 42 40 38
98 103 106 108 109 110 102 104 82 97 86 83 79 74 67 63 62 59 55 55 54 53 56 57 57 56 56 54 56 56 56 56 57 49 44 44 42 44 43 48 46 42 31 29 35 41 42 46 44
109 110 110 111 111 108 104 98 87 96 83 71 72 70 65 62 56 51 50 47 49 45 44 46 46 49 52 55 54 51 56 55 53 53 50 45 41 44 49 50 46 42 34 35 35 38 41 44 49
110 110 111 112 111 109 107 95 91 81 70 68 66 64 56 52 49 46 46 38 37 36 38 38 41 46 46 54 56 56 57 57 57 50 46 45 48 45 46 44 48 35 36 40 39 36 42 46 51
112 111 112 110 104 103 99 79 70 66 63 63 58 48 44 45 44 42 39 30 33 33 34 33 37 42 46 49 56 54 49 49 46 41 43 45 40 38 44 46 42 39 37 42 43 40 39 41 47
105 108 109 103 92 81 67 67 61 59 56 50 41 40 39 38 39 38 31 32 33 35 40 39 41 48 46 48 47 49 38 39 33 36 37 36 42 42 41 41 44 39 38 41 43 39 41 43 42
100 94 92 86 75 67 56 57 56 50 46 40 37 35 36 36 37 33 32 36 37 40 49 47 40 48 48 43 42 40 41 32 29 32 32 39 39 34 37 42 42 41 39 40 40 38 38 36 37
86 82 80 78 74 64 51 41 43 41 38 35 35 37 40 41 39 35 39 38 37 41 50 49 44 48 46 40 35 37 36 35 31 33 36 43 45 45 38 41 43 42 37 37 37 37 34 32 35
78 78 74 65 62 55 39 35 35 36 34 38 41 45 45 46 41 40 39 38 37 40 48 52 49 50 48 41 41 36 35 35 38 42 47 53 53 50 45 41 42 41 34 34 36 33 28 32 30

GFSSGP_250_spd_102.txt.gz
Wind_Speed
25 28 28 30 33 36 43 46 44 42 41 43 43 46 48 48 48 46 44 50 54 56 58 62 69 73 74 77 79 77 76 75 71 69 67 64 60 58 57 58 61 59 57 58 55 54 52 51 47
29 29 29 30 32 37 45 47 43 41 43 43 42 38 37 38 42 41 42 44 46 48 48 51 57 63 66 65 66 68 69 68 65 60 61 60 57 53 52 54 57 56 53 51 50 43 42 42 43
34 30 32 33 39 43 48 47 45 44 46 45 44 42 36 37 35 35 34 37 40 44 46 48 53 56 58 57 59 61 61 59 59 55 51 51 52 52 51 51 52 49 47 48 44 42 42 40 41
39 36 34 37 43 48 51 50 51 48 46 45 42 43 37 36 40 39 40 41 39 39 43 46 52 55 56 53 54 57 58 57 54 50 50 48 49 49 49 49 50 49 45 41 41 41 43 44 44
44 41 39 39 46 51 54 53 52 52 47 43 43 42 36 39 42 44 43 45 44 41 42 44 49 53 53 53 53 54 55 55 55 51 52 52 52 50 49 49 49 51 47 42 39 44 45 47 46
49 48 44 46 51 54 58 57 52 50 47 47 42 43 41 37 37 40 45 46 46 45 44 47 50 52 55 54 54 56 56 56 55 52 53 55 54 51 51 51 53 58 46 43 43 45 47 46 46
55 51 52 53 53 57 62 57 52 54 52 48 43 44 40 41 40 42 45 44 47 49 47 47 50 51 52 55 56 58 59 59 58 54 56 55 55 54 56 55 55 55 46 46 47 47 49 48 48
58 55 54 58 58 59 60 57 55 52 53 52 47 41 45 46 48 48 49 52 50 51 54 50 48 49 52 47 51 57 63 62 59 57 56 55 56 59 58 56 53 48 47 50 49 50 48 49 48
62 57 59 62 61 60 62 58 60 56 53 54 52 49 48 52 50 49 46 51 52 54 55 58 57 55 56 59 59 55 59 61 64 62 62 57 58 61 60 55 53 51 55 55 52 50 49 48 43
64 59 62 64 63 58 56 56 58 53 53 54 55 55 54 53 52 53 56 54 54 56 57 53 54 59 63 65 63 60 57 60 65 64 61 62 63 65 60 57 57 58 55 54 51 45 45 44 46
62 61 66 65 66 63 60 63 60 62 58 59 60 58 54 55 53 53 54 56 57 58 60 60 59 56 63 66 67 65 62 60 61 61 63 61 62 60 60 58 54 55 55 49 48 44 42 45 53
63 64 68 68 68 64 64 67 65 63 63 64 62 60 59 55 55 56 53 53 56 57 57 57 60 64 62 63 64 65 66 63 62 58 56 57 55 56 56 55 56 54 53 53 41 41 43 48 56
67 68 68 71 68 64 66 65 62 64 65 67 64 64 67 64 62 61 55 58 53 57 58 59 57 60 63 67 64 64 65 63 61 59 58 56 54 55 56 56 53 51 46 41 40 41 44 53 56
69 70 72 72 73 71 68 69 68 63 70 67 69 70 70 67 68 67 64 60 57 55 56 58 58 60 65 66 69 65 64 62 63 60 59 56 54 55 52 54 51 43 39 39 40 39 46 52 51
77 76 76 79 79 76 76 71 70 68 70 75 74 74 76 73 74 73 71 63 59 60 65 59 62 61 64 69 70 69 63 64 62 63 60 55 53 52 50 45 39 38 37 39 39 42 49 51 48
80 80 80 83 84 85 82 74 77 82 83 84 81 82 78 79 79 77 73 67 66 65 67 67 66 64 61 66 72 68 67 62 61 59 65 61 54 50 44 40 40 37 38 40 42 44 49 51 41
82 83 83 85 91 90 87 82 84 88 90 86 83 80 81 81 82 76 77 73 72 73 74 71 68 62 60 61 70 68 64 61 60 52 54 60 54 47 46 41 39 32 35 39 45 48 51 48 37
85 85 86 86 91 89 85 79 82 86 87 90 88 87 85 85 85 81 76 79 80 79 80 74 67 62 60 62 66 68 67 63 65 61 55 53 51 47 47 44 37 36 38 38 46 48 52 40 33
84 86 89 91 92 88 87 81 86 88 90 92 93 92 89 86 81 82 84 85 80 82 80 78 70 65 65 62 68 70 66 67 64 64 60 53 51 48 45 43 35 38 35 40 44 44 46 33 34
85 85 88 90 94 89 89 84 87 91 92 93 93 90 89 85 85 88 90 88 86 86 82 73 66 65 64 61 65 72 73 71 65 63 62 54 52 51 50 41 34 37 37 41 43 44 41 30 34
89 89 90 90 95 95 94 87 91 91 91 93 93 90 92 93 91 89 84 84 85 83 75 74 69 63 61 61 65 69 73 73 70 63 59 60 54 53 56 51 44 40 41 38 41 39 33 30 38
92 95 93 91 92 91 96 87 87 93 97 99 96 95 91 87 81 80 83 82 79 72 71 68 66 63 63 63 63 64 68 72 71 70 66 61 51 53 53 48 41 39 41 42 42 41 29 35 36
90 95 97 97 99 95 97 101 86 95 103 102 95 91 88 86 84 79 75 71 69 67 71 66 66 63 66 63 63 64 67 68 70 71 61 54 54 58 54 50 36 38 41 42 41 36 30 36 36
97 97 100 102 103 99 100 105 93 101 101 101 96 93 93 85 78 69 63 62 63 66 65 64 60 59 61 59 58 57 58 59 62 62 59 59 54 55 49 48 35 34 40 41 40 40 31 37 42
103 106 107 106 104 101 104 103 98 102 102 94 92 90 79 74 67 62 59 58 57 56 52 51 47 49 49 51 52 52 52 49 54 53 49 52 52 53 53 46 39 37 42 43 43 36 34 36 40
104 105 105 104 103 103 104 102 99 100 95 92 83 68 61 59 60 58 56 52 47 41 40 39 40 40 40 44 46 48 48 46 47 46 49 50 53 49 45 42 37 34 39 43 41 38 37 39 39
100 99 98 101 101 101 97 95 91 89 85 75 62 59 56 56 53 49 47 39 35 35 36 32 30 30 29 34 39 38 39 42 44 44 45 44 45 34 32 34 33 40 46 41 39 39 38 41 42
92 93 97 99 98 94 85 80 76 73 69 64 57 57 51 46 41 40 37 29 31 31 29 28 30 28 24 28 33 35 34 38 39 36 31 33 30 29 31 36 38 39 35 35 39 39 38 41 42
86 87 88 88 87 77 70 65 65 63 56 53 55 48 43 38 35 37 33 27 29 31 29 32 35 32 27 30 28 29 32 31 33 28 31 32 28 28 32 43 42 40 37 36 42 42 38 39 38
82 85 83 79 78 76 69 57 58 53 49 51 47 43 38 34 35 34 34 29 34 34 37 39 41 40 39 39 34 32 36 38 39 36 37 33 31 36 40 46 50 43 41 42 47 41 38 36 36

GFSSGP_250_spd_105.txt.gz
Wind_Speed
26 28 27 30 32 38 40 37 35 35 37 41 40 40 39 38 38 41 42 43 47 50 50 52 55 59 68 70 72 74 75 77 76 71 70 69 69 67 66 64 62 60 61 60 60 61 62 60 60
32 33 32 33 35 40 38 36 31 33 37 41 42 43 42 40 37 40 42 40 37 39 39 40 44 45 52 56 52 53 54 55 58 60 63 61 61 60 58 58 57 56 58 57 58 57 55 57 55
39 39 38 38 42 42 42 40 37 36 38 43 43 45 46 44 42 40 38 41 41 40 38 38 37 40 44 50 49 47 49 49 48 49 51 53 55 55 54 54 55 53 54 55 55 54 52 49 48
41 41 41 44 48 49 47 45 41 39 41 42 45 43 48 47 43 40 42 44 43 44 44 42 38 38 38 41 49 46 48 47 45 46 49 51 54 54 54 55 53 52 52 51 53 52 50 45 43
43 45 43 48 51 53 53 51 48 47 41 40 43 48 47 48 46 42 43 44 44 44 45 46 44 42 41 40 40 44 46 48 45 45 46 49 51 53 53 53 51 48 48 51 53 51 47 44 47
50 47 46 49 55 57 56 52 51 49 48 45 45 47 48 47 46 45 44 42 41 41 44 46 47 46 47 45 40 39 42 47 49 46 44 49 52 53 55 56 54 50 51 53 55 53 50 48 49
53 49 46 51 57 59 60 57 54 52 52 50 47 46 50 48 47 46 45 45 44 47 47 48 48 44 44 44 44 43 42 40 42 43 44 50 52 53 57 59 56 55 55 54 54 51 45 47 49
56 53 51 56 59 63 63 60 58 58 56 56 49 48 46 49 47 51 50 51 52 53 50 51 51 53 52 50 47 47 47 43 46 46 44 46 47 52 55 58 58 58 58 55 55 53 52 49 51
60 55 54 60 63 65 65 63 61 59 58 54 52 52 52 51 52 51 54 49 50 50 53 54 57 56 56 54 55 55 51 53 52 51 47 46 47 50 51 57 60 60 56 55 56 54 55 53 53
58 58 58 62 63 63 65 65 65 60 60 60 58 57 56 53 53 54 53 53 52 51 52 55 56 56 57 58 55 56 54 55 56 56 56 52 50 50 51 55 57 56 56 58 53 52 52 49 50
59 58 63 61 66 63 62 67 64 63 64 65 61 60 57 53 53 55 55 54 53 53 52 54 56 59 61 60 59 56 57 56 57 57 56 55 49 46 50 50 49 50 50 46 45 47 51 50 50
59 60 64 61 64 64 65 65 66 65 65 68 62 62 64 56 54 56 57 58 59 59 58 55 57 58 58 62 60 56 54 57 57 55 52 51 51 46 45 46 44 43 43 44 44 47 48 47 44
62 63 63 64 64 65 65 66 69 65 72 72 70 64 63 62 61 61 60 61 62 61 62 61 63 56 59 56 55 56 55 57 56 55 54 51 49 48 45 47 47 45 43 40 43 44 44 43 41
65 64 66 64 65 66 67 67 65 69 73 71 69 64 65 70 74 72 66 66 67 68 67 67 66 64 51 62 56 55 51 60 61 61 56 53 48 47 46 48 46 42 38 37 38 42 38 38 41
65 66 67 70 71 69 70 70 73 72 76 74 72 72 77 79 75 74 75 75 71 70 71 68 65 64 63 56 57 59 61 60 62 61 61 56 50 49 47 51 48 41 39 37 37 36 35 37 41
71 68 72 72 74 74 73 70 72 74 75 78 81 81 78 79 81 82 80 78 72 71 71 70 67 66 63 60 59 65 64 62 62 60 60 58 51 53 49 49 52 52 44 38 33 36 38 37 41
76 75 73 74 78 81 79 75 77 78 79 80 80 82 82 83 81 79 81 80 80 77 73 74 74 71 69 67 66 67 70 61 61 60 57 59 55 53 46 43 46 47 43 40 32 36 35 37 40
81 79 80 78 82 80 78 78 78 80 83 84 84 83 84 85 85 83 83 83 84 84 81 80 78 74 75 75 73 69 70 65 63 58 57 58 57 55 52 43 43 42 40 41 34 36 39 41 39
85 83 82 82 82 77 80 80 82 83 83 86 87 87 85 86 87 88 87 86 85 85 84 85 86 85 82 81 74 68 72 74 64 62 61 58 58 54 54 48 43 43 39 38 33 34 38 38 40
88 86 84 83 85 81 82 80 83 86 85 83 83 86 86 85 89 93 93 93 89 88 88 90 88 87 85 80 74 72 72 71 67 65 64 63 57 55 53 51 47 47 42 39 33 34 39 39 41
88 87 86 86 88 87 84 79 85 90 91 91 91 90 90 91 92 92 93 92 93 90 92 89 86 85 82 79 78 72 66 62 64 66 65 66 62 58 54 52 46 47 46 46 45 35 41 42 40
95 93 90 91 90 89 87 80 82 90 95 97 95 92 90 91 92 91 93 95 96 95 94 88 86 86 83 80 75 65 59 58 59 66 68 68 65 59 53 50 48 47 47 45 47 43 42 36 34
100 99 98 94 92 91 87 87 79 88 94 97 96 94 93 92 90 92 93 95 94 93 82 80 78 79 79 73 66 60 57 56 63 65 67 65 61 61 59 48 45 44 49 43 43 42 35 32 31
101 101 101 100 95 90 91 93 82 89 91 96 99 101 99 97 93 91 91 90 86 80 78 79 77 74 70 64 60 59 59 58 60 63 63 63 60 60 60 54 45 44 47 46 48 37 33 37 34
104 101 99 99 97 93 93 92 89 93 97 97 96 97 95 92 91 88 84 82 78 71 68 64 64 63 61 61 60 58 58 59 60 62 62 60 55 56 59 51 51 49 46 39 38 30 38 36 35
93 95 96 94 97 98 98 92 92 95 96 94 94 92 89 87 81 76 78 75 62 55 52 52 54 55 53 53 53 52 50 50 54 57 53 57 52 56 49 51 51 47 42 38 32 33 39 37 38
86 87 90 94 93 93 93 93 94 93 92 89 87 85 82 75 66 65 64 58 54 49 48 46 44 42 41 40 40 39 39 40 42 42 43 45 48 49 45 44 47 47 50 44 33 39 40 38 34
82 85 86 89 90 90 88 90 88 84 82 79 79 75 66 58 57 57 53 51 46 41 36 33 31 31 30 29 28 28 30 30 31 30 32 37 41 42 44 46 42 39 35 33 34 38 38 34 33
76 80 82 85 86 86 83 80 76 73 70 70 65 59 57 56 51 46 44 40 34 31 30 27 27 26 27 29 24 19 22 24 28 26 30 27 34 38 38 42 43 39 38 39 43 41 36 37 39
71 73 75 77 77 78 77 66 64 62 62 58 54 51 50 49 46 41 37 32 29 28 27 28 30 29 33 32 31 29 28 20 20 26 33 33 34 37 37 40 36 36 30 42 44 46 40 41 42

GFSSGP_250_spd_108.txt.gz
Wind_Speed
34 33 32 33 35 37 38 36 27 25 27 28 30 30 32 32 37 40 40 43 46 47 48 49 53 55 59 63 62 61 62 64 66 67 67 66 67 63 63 65 64 63 63 63 64 63 61 59 57
33 33 34 37 40 42 42 38 32 33 34 32 29 32 35 33 35 41 38 39 44 45 45 47 48 47 49 53 56 57 55 53 54 54 53 54 55 54 56 55 55 58 58 59 60 57 56 58 55
37 36 35 40 46 48 47 45 39 41 39 35 37 37 35 33 34 38 38 39 40 44 47 46 45 45 45 46 48 48 47 47 47 45 44 43 44 48 51 52 52 55 56 55 58 60 59 56 54
42 39 40 44 50 50 49 47 47 43 44 44 44 40 38 40 38 39 39 39 41 41 43 45 46 45 45 43 45 45 44 44 41 40 38 40 42 43 45 50 52 53 55 55 58 57 56 57 55
45 43 42 46 52 55 53 51 50 47 45 46 47 44 42 44 45 44 41 41 43 43 44 46 47 47 46 44 45 43 43 43 42 39 37 36 40 42 44 47 48 48 53 53 54 55 57 56 52
47 47 44 51 58 60 59 55 53 52 48 46 50 49 47 47 47 44 42 43 45 44 44 47 48 49 48 46 43 44 44 42 41 38 37 34 37 40 42 46 47 48 48 52 53 53 52 54 54
47 47 47 53 60 60 60 55 55 55 54 51 53 52 51 49 49 45 42 43 43 44 45 47 48 49 49 48 47 46 44 45 44 42 37 38 35 37 42 42 41 45 48 49 53 55 55 56 55
52 48 50 55 61 61 61 59 58 59 58 58 57 54 53 54 51 49 48 50 48 43 44 42 42 46 46 46 47 47 48 47 47 47 46 43 42 46 43 43 42 42 41 45 49 53 56 55 55
59 53 51 59 62 62 64 61 61 59 60 60 60 56 55 49 53 54 54 50 49 47 46 44 48 48 48 47 48 46 44 47 48 46 46 49 50 51 49 48 46 45 44 42 43 48 53 55 55
63 61 61 61 62 63 64 62 60 60 59 60 61 58 55 54 58 55 56 54 54 50 50 48 48 49 50 52 51 51 52 47 45 49 50 49 52 55 56 54 51 47 48 47 45 44 47 48 49
67 64 65 66 64 60 64 65 61 60 58 63 60 58 56 59 61 61 60 57 55 54 52 53 52 52 54 53 54 54 56 55 54 48 47 48 50 54 56 56 51 48 47 46 42 38 38 41 42
63 65 64 65 65 62 64 66 63 59 57 60 59 59 58 61 62 63 62 57 55 55 56 58 57 55 56 56 60 55 57 57 54 50 52 49 50 50 51 50 44 44 42 39 36 38 40 42 44
66 65 65 63 64 63 60 63 65 60 62 61 57 59 62 63 64 63 59 59 60 63 62 60 58 61 63 59 60 60 56 52 48 52 50 48 52 53 47 47 40 40 40 39 37 36 37 38 40
72 71 67 64 63 62 62 60 60 65 64 61 62 63 64 65 66 65 64 65 65 65 65 62 63 65 64 62 60 59 58 54 54 61 59 55 54 54 52 45 41 39 37 39 34 35 35 35 35
77 75 71 71 68 64 62 59 59 64 67 65 64 66 68 69 70 69 67 65 66 68 69 66 68 65 65 63 65 64 63 62 62 57 57 57 57 53 54 47 41 40 40 38 38 35 36 37 35
82 79 78 73 72 70 66 66 65 66 67 69 71 72 71 71 71 71 71 71 72 71 70 70 68 68 67 67 68 67 66 67 65 62 60 58 59 56 53 47 42 40 40 38 38 41 43 40 35
85 84 82 79 77 77 75 72 70 73 72 74 77 78 79 78 77 76 75 74 74 76 75 74 74 73 72 73 73 75 74 70 68 63 64 61 63 59 54 49 43 42 40 35 37 37 38 37 35
93 85 86 83 82 81 77 77 75 77 78 79 79 80 79 79 79 78 78 79 79 79 80 80 79 78 77 78 78 77 75 74 73 69 68 68 68 61 56 53 44 44 43 43 37 37 36 36 41
94 91 84 82 85 84 82 80 81 82 80 81 81 79 80 82 83 81 81 81 80 81 81 82 83 82 82 83 81 80 79 78 77 74 74 72 70 67 61 54 49 44 44 45 38 37 36 38 40
98 93 88 85 86 84 84 83 85 85 85 82 82 82 82 83 84 85 85 84 84 83 83 85 87 89 89 87 84 83 81 81 80 77 75 71 69 70 63 56 55 48 46 47 47 39 38 37 38
98 94 94 92 89 86 86 84 85 86 86 86 84 83 83 83 85 86 87 88 89 90 90 91 93 93 92 91 89 89 89 87 82 77 74 70 73 72 66 61 59 52 48 45 47 44 40 39 40
96 100 99 97 97 91 86 86 85 88 89 89 88 87 86 85 85 86 88 91 92 93 93 93 92 93 94 95 94 92 90 86 82 77 80 76 75 74 68 64 61 57 51 45 44 43 40 40 43
91 91 96 96 97 93 89 89 91 90 93 94 93 93 90 89 88 88 89 90 91 93 93 93 95 95 96 94 91 89 87 83 77 76 75 76 74 68 66 61 62 62 53 47 45 45 41 41 43
94 93 92 92 93 91 94 93 92 92 94 96 95 97 95 93 92 92 93 92 92 92 94 95 94 94 94 92 90 88 83 78 77 73 72 68 66 63 60 59 60 64 56 48 47 44 39 39 41
92 90 90 90 92 91 90 95 99 93 94 95 93 95 96 97 99 97 94 93 93 94 94 92 88 87 90 89 85 84 84 78 73 65 62 62 60 59 62 58 58 62 52 49 44 38 36 39 41
82 83 86 87 88 86 83 86 92 94 96 96 98 94 94 97 98 98 96 95 93 93 91 89 88 84 81 72 66 64 66 61 56 55 56 56 57 57 61 55 55 55 57 46 43 40 38 38 36
73 78 79 80 80 82 82 85 87 88 90 91 94 95 96 96 94 93 92 91 88 84 82 76 66 61 57 52 49 49 50 50 50 52 55 51 53 58 55 52 53 52 53 51 46 41 39 38 37
66 69 72 77 79 80 79 82 86 84 88 90 92 93 92 91 91 89 83 77 72 70 64 56 52 48 47 47 46 46 46 44 42 42 44 48 53 53 51 51 46 51 51 47 39 41 42 39 38
59 62 65 71 73 76 78 79 78 82 85 88 89 87 85 82 79 76 67 61 61 54 47 44 40 38 38 35 35 34 23 16 20 28 29 34 39 44 47 49 44 51 55 49 40 42 46 43 44
48 52 59 63 66 71 73 74 74 77 81 81 78 74 71 70 68 63 53 54 45 41 39 34 31 28 27 28 31 32 30 26 21 25 28 29 33 36 43 47 47 48 52 49 44 43 39 37 40

GFSSGP_250_spd_114.txt.gz
Wind_Speed
45 44 42 42 40 38 39 38 29 30 27 36 29 31 32 32 36 38 33 38 36 40 40 40 40 40 42 45 47 46 45 46 45 46 44 44 46 49 52 55 55 56 54 54 56 56 56 56 56
43 40 44 45 43 41 41 37 32 33 32 38 35 35 36 37 41 42 33 42 40 37 37 38 39 40 41 41 40 41 39 39 41 41 42 42 43 43 44 42 44 46 48 48 48 47 48 47 48
46 44 39 45 45 45 47 38 33 35 37 39 42 40 37 38 43 44 44 40 43 40 38 39 39 37 36 36 36 36 35 34 31 33 35 37 40 42 43 44 41 42 41 39 41 41 41 39 42
49 50 49 46 44 45 46 43 29 38 39 40 45 46 41 43 43 46 48 44 42 39 38 39 39 39 37 37 36 36 35 33 32 30 31 34 37 38 39 40 42 43 41 41 38 33 34 35 37
55 48 46 47 51 48 48 44 35 43 40 40 47 49 47 46 49 51 51 45 42 38 40 41 42 40 38 37 35 35 36 35 34 35 35 35 34 37 38 37 38 40 41 42 42 35 36 36 35
55 50 51 49 53 53 55 47 43 48 45 42 43 51 55 39 50 55 52 49 48 43 43 45 46 41 42 40 35 35 35 33 36 34 31 33 35 37 39 38 40 41 41 39 41 44 41 39 41
59 54 54 53 55 53 52 43 48 54 51 50 46 50 52 46 43 60 52 54 49 49 46 48 48 42 43 41 40 38 35 33 33 31 29 32 32 35 36 34 38 40 40 41 39 43 41 42 40
63 58 49 53 53 54 53 54 60 61 57 54 52 53 55 43 42 58 52 57 55 50 47 48 46 45 46 45 42 39 39 39 37 32 31 31 33 33 37 36 40 41 40 39 43 46 46 44 41
67 57 58 63 62 60 62 63 67 59 56 56 53 53 56 48 41 49 53 56 56 53 49 46 48 51 48 49 46 45 42 44 41 39 38 35 34 36 38 38 40 39 41 42 43 45 46 47 46
69 69 72 72 67 66 66 67 74 62 50 55 55 52 57 53 49 52 55 57 54 55 48 49 52 53 51 54 48 46 43 47 50 45 44 39 40 38 39 40 40 36 34 36 39 44 45 45 46
77 69 73 73 73 72 69 76 80 61 56 53 53 57 57 54 53 53 55 56 55 54 53 53 55 52 54 53 52 51 48 53 48 51 51 48 42 43 41 42 41 41 41 37 39 39 44 43 43
71 77 77 76 75 74 79 79 68 58 59 57 54 55 55 55 55 57 59 56 58 54 50 56 57 55 53 54 56 55 51 56 51 54 56 52 49 43 44 43 46 45 46 46 44 43 40 39 39
75 77 77 76 79 81 78 76 76 63 61 64 59 57 58 53 55 56 61 61 61 61 58 54 50 61 64 59 57 57 56 56 55 59 58 55 54 50 47 47 47 48 48 49 48 45 43 42 39
78 77 79 78 80 77 75 74 69 68 67 64 64 65 65 61 59 55 58 65 64 61 58 58 60 61 58 67 63 62 58 56 58 62 59 57 57 55 55 52 49 50 51 50 49 48 47 47 40
86 83 84 81 78 77 80 70 71 70 73 71 65 69 70 66 64 62 59 61 60 64 62 59 61 60 57 62 65 64 63 59 60 63 61 62 62 60 61 58 55 53 50 51 51 50 52 50 44
88 86 83 81 87 87 86 76 78 78 76 71 73 76 72 70 68 70 65 60 60 66 63 63 66 64 61 62 66 67 64 63 63 64 65 66 66 66 65 62 60 58 55 52 54 52 53 52 48
88 87 91 86 90 95 95 87 89 87 86 84 77 78 73 73 73 70 66 63 66 68 62 63 67 70 71 72 72 71 70 68 70 67 67 67 70 70 69 70 67 61 60 56 55 57 54 52 53
92 93 90 87 91 103 103 96 96 93 96 95 94 89 85 79 77 73 67 67 76 71 70 67 67 71 73 75 76 76 77 76 71 68 69 68 72 71 72 69 70 67 63 64 59 61 56 57 56
100 101 97 92 97 110 110 109 103 101 102 101 99 95 91 90 87 72 70 73 78 76 74 74 72 71 73 76 77 75 76 75 73 70 71 71 72 75 74 74 70 73 71 69 64 60 61 62 60
107 108 108 111 111 117 119 121 106 104 101 96 102 103 97 97 92 74 71 78 80 79 78 77 74 75 75 75 76 77 77 76 74 71 70 73 73 74 76 78 76 75 76 71 66 62 68 67 62
115 117 118 123 118 116 112 116 112 95 91 96 98 100 103 99 93 88 85 80 78 79 81 81 80 79 79 78 77 77 76 76 76 77 77 77 78 77 74 81 80 76 74 74 72 70 71 72 60
128 129 130 125 120 108 107 109 107 92 96 97 99 109 98 95 93 90 88 84 82 79 83 83 83 82 81 81 79 78 78 76 78 78 79 80 82 82 77 79 85 82 81 78 77 75 72 69 61
133 127 111 111 107 104 93 99 99 95 94 95 102 94 93 91 92 89 89 88 86 82 85 84 84 86 84 83 82 82 81 81 80 82 82 83 84 86 84 83 84 88 89 83 79 77 74 71 66
122 114 101 91 92 98 83 93 86 87 92 95 97 87 86 90 93 88 88 91 88 85 85 86 87 87 86 86 87 87 87 87 87 87 88 88 89 86 84 82 84 89 90 85 83 78 74 69 64
97 91 86 81 76 76 75 82 78 83 87 94 91 91 78 91 90 90 90 93 91 90 87 85 89 90 90 91 91 92 89 90 90 90 90 91 91 87 85 82 81 87 90 87 82 77 71 68 63
81 81 77 73 64 60 61 65 69 68 73 83 88 85 91 85 87 86 88 92 92 90 89 89 90 92 93 93 92 93 92 91 91 92 94 91 91 87 84 84 76 67 92 90 80 71 69 63 59
71 67 65 63 58 53 53 54 60 64 67 74 78 80 86 85 81 85 87 89 88 86 87 87 88 89 91 91 91 92 90 89 87 88 86 85 85 82 80 78 75 77 88 83 77 73 68 63 49
61 57 56 56 49 47 47 51 59 58 65 62 67 70 77 80 77 78 82 85 86 87 88 87 87 87 88 86 86 85 82 85 83 81 80 77 72 70 63 62 63 68 70 70 68 68 60 61 48
46 47 49 50 46 41 43 49 51 54 57 59 60 62 65 68 70 73 77 80 83 85 85 84 84 84 84 82 79 81 82 82 79 68 57 51 45 40 36 36 38 39 39 44 48 54 53 54 48
44 36 42 43 41 39 38 39 43 48 49 49 49 52 57 63 68 71 75 77 78 79 80 80 80 81 81 79 78 76 77 67 54 46 40 34 31 28 28 25 21 25 27 33 41 43 47 46 51

GFSSGP_250_spd_120.txt.gz
Wind_Speed
30 28 33 37 41 43 40 40 36 29 27 31 35 34 31 28 25 23 31 35 33 34 34 34 33 34 33 32 33 32 32 33 34 35 37 39 40 40 42 45 46 46 47 47 47 47 47 48 48
35 40 34 41 45 45 40 36 43 32 29 33 35 35 27 25 29 32 33 34 33 36 37 34 30 29 30 31 30 30 30 29 32 33 32 32 32 34 36 38 39 40 42 41 41 41 43 44 44
41 44 45 47 52 52 42 39 33 35 35 41 40 35 27 27 31 34 34 37 37 38 39 37 33 30 28 28 28 30 31 30 31 32 32 32 30 30 32 33 34 35 36 37 39 40 40 40 41
47 43 49 50 53 49 44 40 35 36 35 38 41 41 39 38 36 37 37 40 43 41 41 38 37 31 30 30 30 32 33 32 32 30 30 29 29 29 30 30 31 32 33 35 37 39 40 41 42
46 46 48 51 57 50 47 37 39 39 37 42 42 41 35 30 34 38 37 35 43 46 45 42 42 37 37 34 32 35 36 35 32 31 28 27 28 27 27 27 29 31 31 33 34 35 36 38 40
51 47 48 51 55 53 47 45 32 36 41 50 51 48 38 38 44 47 47 46 43 44 47 48 46 44 38 36 37 36 33 33 31 30 30 28 29 29 28 28 28 29 29 28 29 33 36 37 38
48 49 50 51 53 55 50 45 39 42 44 53 42 48 49 52 46 47 50 49 46 47 50 52 48 46 43 39 40 31 33 34 32 34 33 32 32 33 30 30 30 30 31 33 33 34 34 34 34
51 53 54 52 55 56 47 49 44 47 49 51 58 56 50 43 42 43 53 49 52 48 48 53 52 48 47 43 41 38 35 35 33 35 36 35 33 36 35 34 36 36 32 33 34 33 36 36 33
54 55 51 53 52 55 58 55 46 46 52 53 56 53 49 50 47 45 49 57 56 53 48 52 55 52 51 47 44 41 38 30 32 35 39 38 38 39 38 38 39 39 39 37 34 35 36 33 33
51 51 52 55 56 55 61 55 54 51 51 58 62 60 60 53 52 53 58 56 55 56 52 52 53 55 53 52 50 46 46 42 44 42 39 39 37 38 43 40 42 42 41 43 36 35 36 35 35
50 57 56 58 60 60 58 57 55 55 59 61 60 62 61 59 55 61 60 56 48 51 55 56 55 55 53 55 56 53 51 51 56 54 45 42 40 40 41 42 46 42 42 44 44 39 41 40 39
53 57 57 62 64 58 57 57 64 63 65 65 64 64 62 65 67 69 62 53 52 45 51 51 51 53 53 50 52 58 57 54 50 51 49 47 42 44 42 43 47 41 41 42 45 45 45 46 41
58 60 59 57 59 62 62 63 60 65 75 72 71 69 70 68 68 65 61 55 52 39 37 43 49 52 48 46 47 45 53 57 52 45 47 48 45 47 47 45 45 46 46 45 47 47 47 47 48
65 59 55 61 69 69 66 67 73 76 74 71 71 71 73 72 68 65 60 57 53 48 49 36 45 53 57 58 50 52 55 47 47 45 44 44 48 47 41 45 46 43 48 51 52 52 52 52 49
63 58 63 69 75 81 74 68 73 74 73 73 77 77 76 75 71 68 67 62 60 57 51 51 52 51 56 63 62 59 58 57 53 44 36 35 36 40 51 61 63 57 59 61 56 55 54 53 55
67 70 72 77 81 81 76 63 75 78 78 76 74 71 71 74 75 75 73 70 69 71 71 67 67 65 62 59 64 68 66 54 52 42 38 34 28 42 58 61 58 58 61 61 61 60 58 56 56
79 76 76 78 80 83 82 66 71 76 78 78 78 79 79 80 84 81 75 77 82 80 78 78 76 73 67 63 61 64 68 67 63 46 41 19 40 54 44 44 51 57 57 59 58 61 60 55 53
78 76 75 77 81 83 86 75 77 82 84 83 86 87 91 93 92 85 86 89 90 88 86 85 86 84 75 66 68 62 66 69 65 64 56 58 46 61 51 50 50 55 57 53 53 59 55 52 50
83 83 79 80 87 88 92 86 82 85 94 96 95 98 104 104 106 92 97 96 93 89 91 92 95 92 82 71 72 68 66 68 70 70 73 70 63 65 72 72 70 55 48 54 58 53 49 46 51
82 84 84 82 90 96 94 90 92 92 97 101 108 111 114 115 114 106 104 101 97 93 93 96 97 97 95 84 77 76 67 70 74 72 80 83 81 78 69 66 66 66 67 67 53 56 43 46 46
86 92 91 92 94 97 100 97 99 95 104 110 116 120 125 127 118 99 98 95 89 91 96 99 101 102 106 96 89 79 75 77 77 80 79 89 93 90 90 83 77 65 64 69 59 67 51 51 47
85 97 97 98 100 100 100 107 99 102 110 116 114 119 128 125 117 98 87 88 88 92 96 98 101 103 104 98 97 88 82 79 81 80 86 86 94 96 95 92 91 87 79 56 73 75 66 52 53
93 102 103 103 105 110 97 118 104 108 108 111 113 111 102 99 95 89 87 81 83 87 89 93 98 98 99 94 93 93 88 86 82 82 84 90 92 94 96 95 94 93 91 90 83 72 75 75 62
100 104 106 107 111 113 114 122 114 112 105 100 92 88 82 79 76 74 75 76 71 76 79 72 79 83 87 89 87 90 91 90 88 84 82 84 92 94 94 95 93 92 91 90 90 87 81 79 79
107 108 111 114 116 117 118 118 118 108 90 86 81 74 71 67 67 64 66 69 70 69 71 71 69 74 81 84 85 87 89 90 89 88 85 83 87 92 95 94 94 95 93 92 91 90 83 84 82
108 109 111 113 113 114 112 106 92 82 74 71 66 63 64 61 57 59 57 60 60 59 61 64 68 73 75 80 83 85 88 89 89 89 89 89 88 88 91 91 91 95 94 92 91 89 86 86 84
105 104 110 115 109 100 86 84 70 62 66 63 59 55 55 49 50 47 51 51 52 56 56 56 54 62 70 74 79 83 85 86 86 87 89 90 88 88 89 89 88 89 93 94 93 89 88 88 88
106 106 111 101 90 80 66 64 56 53 59 59 54 51 43 34 49 47 46 44 35 40 41 43 46 50 62 71 75 76 78 79 80 82 84 86 86 87 86 84 83 84 83 83 85 86 85 87 86
107 100 93 90 72 65 56 52 53 51 53 52 51 52 49 52 48 49 42 44 43 42 43 41 43 46 52 59 68 74 76 76 77 77 78 81 83 82 82 81 81 81 80 78 74 77 78 83 86
95 89 83 70 62 56 49 45 52 48 44 48 49 47 46 46 50 45 44 44 47 42 50 42 41 42 43 48 53 59 66 71 73 73 74 77 78 74 74 75 76 75 70 70 72 74 76 79 85

GFSSGP_250_spd_123.txt.gz
Wind_Speed
37 33 40 39 42 39 35 40 36 38 37 40 36 36 36 37 34 27 30 31 29 29 32 33 32 30 29 29 31 33 34 33 31 29 30 31 33 34 35 36 37 39 39 40 41 41 42 43 44
45 42 40 44 47 42 38 44 35 35 37 35 38 38 36 36 34 33 30 30 31 32 34 34 33 32 30 29 27 29 31 30 29 30 31 30 31 32 33 32 31 31 32 33 35 35 36 36 38
46 46 46 48 50 44 43 38 37 31 31 37 37 39 39 39 42 42 40 39 36 34 34 35 37 37 35 31 29 30 30 31 32 30 31 33 31 32 31 31 32 29 31 29 30 32 32 33 36
45 45 47 48 50 45 42 37 38 32 28 32 37 41 40 40 44 44 45 43 41 39 37 35 35 38 39 36 32 32 32 34 35 36 34 33 32 32 31 30 30 31 33 32 31 31 31 32 34
50 47 52 57 58 53 46 44 46 36 36 32 37 39 39 38 41 48 47 44 43 41 41 41 38 38 38 40 37 35 32 35 37 36 35 33 31 30 29 30 29 29 30 30 32 32 32 32 34
47 50 51 53 54 52 48 44 40 36 39 37 40 40 42 44 41 42 47 49 50 49 50 50 49 48 44 40 42 39 38 39 37 34 33 33 32 33 32 32 33 30 30 33 35 32 34 36 35
49 50 51 55 56 50 47 46 43 42 41 39 42 41 42 44 39 47 45 44 46 45 47 50 51 50 48 46 46 45 42 40 40 37 36 34 34 34 35 34 35 35 31 34 37 36 36 37 35
56 56 51 53 55 51 50 45 45 45 45 49 53 46 44 40 47 50 49 51 54 51 46 47 50 48 49 51 50 50 47 46 43 42 36 35 33 34 33 37 38 38 39 35 37 37 39 39 36
57 62 54 52 55 55 51 48 48 46 48 53 55 53 45 40 41 46 53 59 57 55 50 51 58 55 49 52 52 51 49 49 48 44 41 38 41 36 35 34 36 36 39 39 40 37 37 41 41
53 56 54 50 53 55 53 50 51 49 52 57 55 52 47 42 46 49 54 57 56 54 53 55 53 50 49 51 54 52 51 51 50 48 46 47 48 45 40 39 38 37 39 40 43 41 34 37 43
51 54 52 52 54 55 57 55 54 53 58 58 51 48 51 53 54 55 57 55 58 60 59 54 50 47 48 51 55 56 53 53 50 51 50 51 56 51 46 42 39 38 39 41 44 40 34 35 42
58 58 58 59 55 55 57 60 59 59 60 55 52 54 58 55 57 60 64 61 58 60 55 52 50 48 47 51 52 55 53 52 48 44 45 50 54 52 47 45 42 39 39 41 38 41 45 48 47
62 61 59 58 58 58 57 60 59 60 65 61 63 63 64 69 66 62 58 58 59 58 56 53 48 52 51 45 53 54 41 42 50 53 42 49 49 52 47 45 41 38 40 45 40 39 51 51 48
61 61 61 58 60 61 60 59 57 68 69 68 68 76 74 69 66 65 66 65 59 53 52 51 51 53 55 56 49 49 49 34 35 48 55 49 45 44 45 42 45 45 48 43 38 43 48 51 53
63 61 61 62 63 62 61 52 61 68 72 75 80 77 77 77 74 71 68 64 58 54 54 55 56 57 60 60 56 51 54 50 48 53 52 54 41 39 43 46 47 46 45 43 40 38 43 42 43
62 61 61 63 65 63 60 57 66 75 77 74 77 82 83 81 78 73 68 67 68 67 64 65 67 63 63 65 68 67 60 62 65 55 51 43 53 54 48 41 38 36 37 38 44 44 40 41 44
65 66 68 68 68 71 71 64 69 73 75 77 80 82 84 82 82 81 76 73 74 77 76 76 75 76 74 72 72 75 72 63 70 75 70 61 54 56 54 41 46 41 30 34 40 46 43 40 46
73 72 71 71 73 73 71 65 71 77 78 79 83 86 89 87 88 87 86 85 84 83 85 88 86 86 84 83 82 81 81 74 63 75 78 79 60 59 48 47 42 35 34 39 40 53 54 47 39
76 75 74 78 76 72 70 68 73 77 80 86 88 90 92 94 93 91 92 95 94 94 94 95 96 97 96 95 92 90 89 88 81 72 77 82 78 74 55 46 49 45 47 43 44 51 52 59 50
80 77 73 70 72 73 70 67 71 80 87 92 92 96 97 100 102 101 99 101 102 103 103 104 103 104 104 102 103 101 97 94 90 79 79 74 86 77 75 63 57 44 39 47 47 61 64 54 46
81 79 74 76 76 76 78 74 75 85 93 99 100 102 105 107 108 108 108 106 107 107 107 107 107 105 106 107 106 103 102 97 92 89 82 82 74 80 81 87 84 72 61 52 64 65 56 48 48
78 80 79 80 85 82 87 88 85 91 96 102 105 109 112 112 112 113 114 115 111 108 103 98 98 98 97 98 101 102 103 98 92 92 90 85 84 76 84 90 92 86 81 79 74 71 69 64 55
80 83 84 84 88 91 92 105 90 98 103 106 108 111 113 117 119 114 108 104 102 96 88 85 80 85 87 87 90 96 101 101 98 96 93 89 86 81 83 90 93 93 90 92 84 79 71 73 55
88 89 90 93 96 97 95 109 102 105 109 106 108 109 110 111 109 102 90 87 85 81 77 75 75 73 77 79 86 91 99 102 102 98 95 92 93 88 87 88 97 98 101 103 98 89 74 75 72
92 97 98 99 102 103 106 108 110 109 111 108 105 105 99 93 89 86 79 75 74 73 71 68 68 67 67 71 78 86 92 97 97 97 96 93 94 93 92 92 96 99 107 107 107 104 95 92 92
96 99 102 107 108 110 111 113 114 115 111 103 96 92 86 79 78 75 71 64 66 65 65 65 58 58 60 61 66 75 83 89 95 96 97 95 94 93 91 95 100 98 102 111 114 112 113 112 110
102 104 107 113 114 114 112 114 112 109 101 90 85 75 73 70 70 66 61 59 60 62 61 60 51 49 52 53 55 63 71 78 82 86 86 86 87 90 89 92 97 101 103 105 112 115 117 116 114
109 110 112 113 114 113 111 108 102 95 84 75 68 69 68 63 61 56 57 55 56 53 47 43 45 54 54 53 52 53 63 72 75 77 76 77 79 83 88 89 90 92 100 103 105 109 112 114 113
108 110 114 114 112 110 101 90 83 80 71 60 59 60 58 56 52 53 52 52 54 47 45 42 42 44 39 40 44 47 52 60 65 65 69 74 76 78 80 83 85 86 89 94 98 99 100 102 104
108 109 111 109 100 91 84 69 73 66 56 50 50 50 51 51 50 46 45 47 47 42 40 42 41 41 38 38 42 43 48 50 55 59 64 68 72 75 79 82 82 83 85 88 90 92 91 88 91

GFSSGP_250_spd_126.txt.gz
Wind_Speed
41 39 42 43 45 42 37 35 31 37 40 39 41 40 40 41 40 38 35 35 35 35 33 31 29 28 29 30 30 31 31 31 32 32 31 29 30 30 30 32 31 29 27 26 26 26 27 28 29
44 46 46 45 48 43 39 40 37 36 36 36 34 36 41 40 42 41 40 37 33 32 31 32 33 33 33 33 33 33 33 34 33 30 28 29 31 32 32 32 32 31 27 24 22 22 23 23 25
48 47 48 51 48 45 40 40 38 39 37 35 34 35 40 44 40 39 40 40 42 40 37 36 38 36 34 33 34 36 35 36 36 34 31 32 34 34 33 31 31 30 25 22 21 24 26 25 27
46 48 46 50 49 44 45 41 43 43 37 34 38 40 38 37 35 31 33 36 38 39 40 41 38 35 36 37 35 34 36 38 38 37 36 36 37 36 34 31 29 27 27 27 23 23 24 25 27
47 49 50 52 48 48 43 41 41 44 40 39 42 44 41 37 34 35 35 39 37 37 39 42 42 44 44 43 42 41 39 39 39 40 38 38 39 37 33 32 31 29 28 28 25 25 26 26 28
47 50 52 52 52 48 44 43 40 48 47 44 45 42 40 41 42 42 37 43 42 43 42 41 43 47 50 48 44 45 44 43 42 44 44 43 36 37 37 36 33 32 29 29 26 28 28 27 27
53 51 57 53 51 51 51 48 44 44 46 48 43 41 42 42 44 43 43 44 47 45 44 42 44 44 46 46 47 44 42 42 44 46 47 46 43 40 41 38 36 33 31 31 30 31 30 31 28
58 57 57 59 55 54 52 52 47 46 49 52 48 46 45 44 44 47 42 43 48 45 44 44 45 47 49 47 48 48 48 43 46 45 48 48 48 46 45 42 37 36 31 30 28 31 32 34 34
57 57 57 52 53 54 53 50 52 52 53 55 49 49 47 47 47 47 45 48 49 48 48 51 51 51 47 49 50 50 47 46 47 49 50 52 51 49 47 47 42 41 40 39 31 26 30 34 38
59 56 54 53 54 53 53 53 48 48 54 55 50 48 49 49 50 50 45 49 52 53 54 55 57 54 52 50 47 48 48 47 48 50 54 51 52 51 51 47 47 48 47 41 30 32 33 28 34
58 57 58 52 50 52 54 53 52 51 58 52 48 49 49 53 54 49 49 50 55 57 56 59 61 61 56 50 47 45 47 48 51 54 53 51 51 50 52 49 49 52 48 43 37 35 34 31 26
60 62 61 60 57 54 55 53 51 53 60 53 52 53 54 49 50 50 50 53 57 61 62 66 63 58 60 59 50 44 43 44 47 50 52 50 50 54 53 55 54 54 49 47 47 42 36 35 26
65 64 60 58 58 53 51 53 53 59 59 57 57 57 53 52 50 54 56 56 59 63 67 64 61 61 63 60 54 48 45 44 40 44 45 40 40 41 50 50 47 48 50 49 44 39 40 33 27
62 63 63 57 56 54 49 49 52 58 62 61 60 57 56 58 60 62 65 65 67 65 64 66 68 66 63 59 58 55 48 45 44 42 41 32 28 38 44 42 46 45 46 45 43 41 42 39 32
67 60 62 60 58 55 51 48 55 57 63 67 67 62 63 63 67 68 70 71 68 67 69 68 68 68 66 65 64 62 58 54 51 44 40 43 43 39 43 29 38 44 43 49 49 48 46 41 34
66 65 63 61 57 56 54 53 59 61 63 68 68 69 73 71 72 74 70 67 68 68 69 70 68 70 71 71 69 69 69 66 62 57 55 54 53 50 50 56 43 53 59 50 54 45 40 37 32
72 69 68 61 59 59 61 61 65 68 67 69 74 76 74 74 76 76 75 76 74 73 73 74 77 79 80 78 77 76 77 77 72 68 63 60 62 54 60 49 44 53 49 60 52 43 38 43 38
74 72 71 69 68 67 66 69 70 73 71 73 74 75 72 73 77 79 81 80 80 81 82 82 82 84 86 87 87 87 85 83 83 79 73 68 68 70 62 59 65 63 69 64 52 50 40 33 37
77 76 74 72 72 69 70 71 72 74 74 73 73 73 73 77 79 81 82 83 85 88 90 92 93 92 93 95 94 96 95 92 92 89 84 74 71 76 78 74 75 70 72 63 59 54 57 44 44
80 77 74 74 75 73 72 72 74 77 76 74 75 75 76 79 82 85 88 90 93 95 96 99 100 100 101 102 102 102 101 99 98 99 97 93 85 80 82 80 85 83 75 68 58 50 53 58 53
74 74 76 75 77 77 74 71 74 76 80 83 84 86 88 91 93 94 97 99 103 105 104 104 104 104 104 105 105 108 110 108 107 105 103 98 94 91 88 83 86 82 89 77 67 58 55 56 57
75 79 78 79 81 79 79 73 74 77 81 86 89 92 95 98 101 104 105 106 108 110 109 108 105 101 102 104 104 107 106 106 110 108 106 98 96 95 95 92 92 87 86 90 81 72 67 60 58
78 81 83 84 83 81 81 82 73 81 87 93 95 97 101 106 110 111 112 111 112 108 109 107 106 102 98 98 99 100 100 101 101 101 101 102 98 97 100 99 95 92 94 90 92 85 72 69 67
83 84 86 88 88 83 88 89 77 86 92 97 101 103 108 112 114 115 111 108 107 105 100 101 96 89 83 82 81 80 83 84 86 89 92 96 100 97 98 98 97 95 92 99 92 94 86 84 78
85 86 87 88 90 88 91 92 88 92 96 102 107 111 112 114 111 109 108 105 94 90 91 87 81 76 72 69 68 67 66 70 74 78 85 87 91 95 95 96 98 96 94 100 99 97 100 100 94
89 91 92 92 92 92 94 95 97 99 103 107 111 116 115 110 106 100 93 86 81 75 73 72 69 66 62 57 57 58 59 62 66 70 76 83 86 89 91 95 98 99 94 98 104 99 106 110 109
96 98 98 100 100 98 96 99 98 103 108 114 117 110 105 101 91 83 81 77 70 64 62 59 58 61 58 54 50 51 53 56 60 64 69 74 80 83 87 90 88 87 85 89 103 103 100 107 110
104 99 102 103 102 103 101 102 103 104 110 112 112 108 96 86 78 78 72 68 62 58 59 56 55 58 55 54 46 48 46 52 54 58 65 70 77 79 77 78 78 81 82 87 92 105 108 104 105
106 107 106 107 106 106 105 99 101 104 107 103 95 87 81 76 66 65 63 62 57 53 53 50 48 49 41 38 39 40 40 39 43 53 60 64 71 72 71 72 71 74 80 84 88 95 104 111 110
109 109 110 111 110 111 105 91 97 98 93 89 78 76 69 63 56 56 57 56 53 48 45 39 39 41 37 36 37 40 42 42 44 49 52 56 61 64 66 69 71 70 73 79 84 92 99 104 112

GFSSGP_250_spd_129.txt.gz
Wind_Speed
44 44 44 44 40 39 38 37 40 38 40 39 39 38 37 36 39 40 39 41 40 36 37 34 31 30 30 31 31 31 32 33 33 32 31 32 32 30 27 28 28 26 25 24 24 21 16 15 14
43 45 46 44 43 37 32 34 38 40 37 40 39 41 42 42 42 38 38 38 38 36 34 34 33 34 29 32 34 36 37 38 37 36 34 34 33 34 33 33 32 29 26 26 23 20 18 16 17
45 48 44 45 45 45 38 37 35 38 41 43 44 45 47 47 44 39 36 33 30 31 31 32 34 33 36 34 34 35 36 37 38 38 38 36 35 34 36 36 35 32 29 29 26 22 18 19 19
46 46 49 48 46 44 41 43 46 41 43 42 46 48 49 49 45 39 33 28 29 32 30 31 32 34 34 37 36 37 37 37 36 37 38 38 38 37 37 38 37 35 32 31 30 26 22 19 20
54 53 51 51 48 46 44 41 45 41 42 44 46 47 48 49 45 44 40 40 39 35 34 35 34 34 36 39 40 42 44 43 43 42 42 41 41 40 40 38 39 36 33 32 31 27 27 24 25
51 53 55 51 48 45 45 44 46 44 45 48 50 51 50 48 48 47 43 43 42 40 36 34 35 37 38 37 39 39 39 39 40 39 43 42 42 43 44 43 39 39 36 33 31 29 29 26 28
49 52 52 51 54 50 48 46 46 52 50 49 51 50 49 49 51 48 47 45 42 41 39 36 36 37 39 41 42 42 44 43 45 45 44 44 44 43 44 47 45 43 41 37 32 29 30 30 28
59 53 52 53 52 53 51 53 54 48 49 48 47 46 49 52 50 49 47 48 46 46 46 45 41 40 43 43 47 48 48 49 47 47 47 45 46 46 45 46 48 45 46 42 36 31 34 29 27
56 58 57 51 52 55 53 50 50 52 49 45 42 46 48 48 50 48 51 52 52 51 50 49 45 45 47 49 52 52 53 54 51 52 51 48 44 46 47 49 48 47 47 42 41 34 36 35 30
53 54 53 54 54 54 52 49 53 50 48 42 42 43 46 50 50 50 53 54 54 55 55 52 50 51 53 52 51 54 56 55 53 53 47 44 43 48 52 51 47 47 47 41 42 38 37 36 31
56 56 55 55 55 57 58 58 56 55 51 47 47 48 47 50 50 51 53 55 57 58 56 55 57 56 55 56 57 58 54 51 49 50 47 42 45 46 48 47 45 46 49 47 43 43 39 41 40
59 58 61 60 58 57 57 58 57 57 55 49 45 48 49 49 51 52 53 54 56 58 57 57 60 60 59 61 61 61 58 56 54 52 47 43 41 44 42 45 49 46 47 49 49 48 47 42 42
55 55 58 59 57 58 58 58 56 56 53 49 47 46 47 49 47 47 50 52 56 59 60 62 65 67 66 67 64 62 60 58 60 54 51 47 45 42 36 36 38 40 40 44 39 38 42 44 43
61 58 57 59 62 62 58 56 56 54 54 52 50 50 48 49 49 51 53 53 54 58 64 66 70 70 67 67 66 66 67 64 61 57 50 51 51 49 40 34 37 40 35 32 35 34 34 42 40
63 60 62 63 63 61 58 58 57 56 54 54 55 55 51 51 53 57 61 62 58 61 68 73 76 76 73 72 72 71 68 68 67 60 58 57 54 51 45 44 43 41 30 24 26 36 37 40 44
70 66 66 65 65 64 63 63 63 59 56 58 61 59 58 59 62 63 65 66 64 65 72 76 77 77 73 74 75 76 73 72 68 68 67 64 60 55 51 52 49 45 41 34 32 40 41 45 54
71 65 63 66 68 68 65 63 63 62 60 61 65 64 65 67 68 68 69 71 72 75 76 77 78 78 77 77 78 79 78 77 78 78 76 73 72 68 58 61 61 53 54 44 41 44 45 43 61
65 68 68 68 72 70 69 66 66 65 64 67 69 69 71 72 73 72 72 76 80 82 79 79 81 83 83 83 83 83 84 83 83 84 85 83 80 79 76 63 69 70 64 58 63 57 45 28 66
70 68 69 73 73 68 70 71 70 69 69 73 75 76 77 77 77 78 80 82 82 83 84 84 85 86 86 87 86 86 88 90 90 91 92 91 88 85 84 81 70 75 79 68 66 67 63 59 66
75 72 71 71 73 70 68 68 71 71 75 78 79 78 77 78 80 83 84 84 82 82 83 84 86 88 91 93 95 96 96 97 99 98 97 97 97 94 89 85 78 75 82 82 76 76 73 67 74
79 76 75 72 72 74 69 66 66 72 76 78 79 80 81 80 81 83 84 86 87 91 94 97 98 101 103 104 104 106 107 107 106 106 105 102 99 99 98 93 85 80 80 90 85 84 84 80 80
80 81 77 75 73 71 68 65 65 69 76 79 82 84 85 85 85 86 88 90 93 96 99 103 106 109 110 111 112 113 112 110 108 107 106 106 103 102 100 96 91 89 84 92 92 92 91 88 82
83 84 81 80 78 73 70 73 69 74 81 84 86 88 91 93 93 95 97 98 101 103 105 109 110 113 114 114 107 104 103 103 105 103 102 101 102 102 103 103 99 97 97 96 97 98 99 95 95
89 87 86 82 82 79 77 78 71 76 84 87 90 92 93 95 98 100 102 104 105 106 108 110 109 110 108 104 101 98 94 94 90 92 92 95 94 99 101 103 101 100 101 101 102 104 103 103 98
94 93 91 88 86 84 83 78 75 82 84 88 93 96 98 100 103 107 108 107 106 108 109 106 99 95 91 90 86 80 78 77 74 72 75 78 81 84 85 89 89 95 100 100 105 105 106 105 104
99 98 97 94 91 88 86 83 81 86 90 94 97 101 103 103 109 111 110 111 109 102 99 91 82 79 77 78 71 66 63 56 57 56 59 63 68 72 77 79 80 83 89 95 100 105 107 108 104
100 101 101 99 98 93 91 88 86 90 95 100 100 104 103 106 106 105 104 102 96 89 82 75 73 69 68 67 59 55 51 49 47 47 51 51 57 63 71 73 75 79 82 88 96 102 104 107 107
107 105 104 105 103 99 95 93 93 96 102 105 106 105 105 105 101 96 95 90 85 80 77 68 63 59 58 53 49 46 44 43 44 44 43 45 47 56 59 64 70 73 76 77 83 89 98 104 107
110 107 106 107 106 105 102 95 98 104 106 105 105 107 105 98 89 86 84 81 79 71 64 60 57 54 49 45 43 39 43 46 42 38 39 42 47 51 57 60 64 65 65 69 72 79 84 89 98
105 101 104 108 108 109 108 98 102 107 105 103 103 93 88 83 77 77 76 74 67 63 59 54 48 45 43 40 38 32 34 37 39 34 40 43 44 45 53 58 62 65 62 63 65 68 76 84 89

GFSSGP_250_spd_132.txt.gz
Wind_Speed
39 42 42 43 41 41 39 37 35 36 38 38 40 39 42 44 42 42 43 40 37 35 35 37 34 31 31 31 30 29 32 34 35 35 35 37 36 35 35 32 29 28 27 27 26 25 26 24 22
40 42 43 37 39 40 34 38 39 42 42 38 38 40 42 45 46 45 45 41 40 37 35 36 35 33 32 32 33 35 33 34 36 36 36 37 39 38 37 36 33 31 28 27 26 26 26 25 21
44 46 46 40 39 44 45 42 44 42 45 44 45 43 43 43 43 48 47 39 39 32 29 27 33 30 33 35 34 36 37 37 37 38 37 35 37 37 37 37 36 36 32 31 29 28 28 24 23
47 46 48 49 49 48 47 45 43 44 44 45 43 46 44 44 45 47 46 43 41 39 36 38 37 35 35 37 37 35 37 38 40 40 39 38 36 37 37 37 41 40 38 35 33 31 30 26 23
53 52 52 50 52 46 44 44 45 42 46 45 47 43 42 49 49 46 49 45 43 44 42 42 38 34 35 36 38 36 37 43 44 45 45 45 44 44 45 42 41 43 41 41 37 34 33 29 26
51 51 49 47 47 43 43 43 46 47 47 47 44 47 50 50 46 48 48 46 48 46 44 45 43 38 37 41 40 41 39 40 41 41 40 43 43 43 40 42 43 45 45 43 44 40 36 33 28
56 54 53 49 51 52 50 49 50 51 49 50 49 49 46 45 45 48 52 51 49 50 50 48 48 44 43 42 41 41 41 41 42 40 41 43 44 47 46 45 45 46 48 48 46 43 38 34 30
61 60 60 57 51 53 49 51 50 49 50 50 48 44 45 47 44 46 51 55 54 54 51 52 51 49 49 45 46 48 45 45 46 44 43 47 48 47 48 47 46 48 50 48 45 44 42 39 34
62 62 59 54 51 47 45 48 49 47 48 49 47 46 47 47 43 48 54 57 56 53 54 53 52 51 51 51 50 48 50 47 46 49 48 49 48 49 51 51 49 46 52 51 48 45 41 39 37
60 59 56 54 53 51 49 46 49 48 48 48 51 53 47 47 48 50 53 56 57 56 56 55 55 54 55 55 52 51 52 55 54 53 50 52 49 48 48 48 49 47 46 46 42 40 38 41 40
55 54 52 52 51 49 49 47 50 51 49 50 49 51 51 51 52 54 57 59 60 60 57 58 58 58 58 56 54 55 56 56 54 54 54 55 51 48 46 45 50 50 45 39 45 48 45 40 40
53 55 56 51 49 49 48 51 50 48 49 49 51 52 50 51 55 57 58 62 62 61 60 61 61 61 61 60 59 59 55 56 59 60 58 53 53 54 49 47 43 42 42 43 44 43 43 42 44
51 54 54 55 56 55 54 54 51 51 51 53 53 51 49 50 52 56 59 60 62 63 64 63 65 66 64 65 64 64 65 66 63 61 61 54 54 57 51 48 48 44 38 41 41 42 40 42 41
58 58 56 59 60 60 62 58 56 56 58 62 60 54 53 52 52 54 57 57 59 60 62 65 68 68 67 68 68 70 71 73 73 68 65 63 63 60 57 53 49 50 43 44 43 40 37 33 37
58 61 66 62 63 62 63 60 62 63 61 62 61 56 57 57 57 56 56 58 59 59 62 67 68 73 70 73 74 77 79 79 80 77 73 72 66 62 59 55 54 52 48 48 49 48 41 38 38
60 64 68 70 71 71 68 64 61 64 63 64 64 61 62 60 59 57 59 61 63 62 64 69 70 73 76 76 79 80 81 83 82 81 78 74 70 64 59 58 58 55 54 54 49 57 48 38 34
64 67 71 74 73 74 75 66 63 66 67 67 68 65 66 65 64 61 64 67 68 70 73 74 76 77 78 82 82 84 86 87 86 84 82 80 75 72 66 62 60 58 55 56 62 62 49 44 53
70 73 73 77 75 72 69 65 65 69 70 72 72 69 68 69 68 68 69 71 75 75 77 80 82 83 85 85 88 89 90 88 89 89 89 86 84 80 77 72 69 64 61 60 61 68 62 55 54
75 80 83 85 83 76 72 69 67 66 68 70 69 69 70 71 72 74 76 75 76 78 80 81 84 86 86 89 93 95 96 96 94 93 93 93 91 88 85 81 78 75 72 68 70 74 64 62 65
83 86 89 90 87 76 72 69 70 68 68 69 69 71 70 70 74 77 79 79 79 81 82 84 86 88 90 92 95 98 99 98 96 95 95 95 95 93 90 90 90 87 84 81 77 81 79 79 76
91 96 97 90 80 73 70 70 68 69 71 72 73 71 71 71 71 73 75 77 79 81 84 86 88 89 91 93 96 97 98 101 101 104 104 105 106 106 104 100 99 98 96 93 89 84 85 84 91
100 98 92 82 78 77 73 73 74 70 73 73 73 73 74 74 75 78 80 82 83 85 87 89 91 93 96 99 102 105 107 109 109 111 113 114 113 112 112 108 106 107 107 103 97 91 88 90 90
98 91 87 83 80 80 78 76 78 74 77 78 77 77 80 83 85 86 88 89 91 90 91 94 96 98 100 104 107 110 110 110 111 113 116 116 116 116 115 111 110 106 105 104 101 97 92 92 94
95 91 89 85 86 84 84 82 81 79 83 85 85 85 84 86 88 87 88 90 90 92 93 96 100 103 107 108 108 107 106 106 107 106 107 108 108 104 104 103 103 101 103 100 100 97 97 96 99
96 91 93 93 91 90 87 88 86 85 89 90 90 91 90 89 92 94 95 96 97 99 103 103 105 106 106 104 101 97 94 96 94 91 88 87 86 84 84 86 89 94 95 100 101 99 99 100 99
98 98 98 98 97 96 93 92 93 89 91 93 95 97 97 97 96 96 98 101 103 105 106 108 107 104 98 93 89 86 83 80 78 76 72 69 69 69 71 71 74 79 84 90 92 93 97 101 102
103 103 103 105 102 99 97 93 91 94 96 98 99 101 101 101 102 102 104 106 108 109 109 105 100 90 85 80 78 76 70 67 61 60 58 54 55 57 59 60 65 70 73 75 80 84 87 93 101
110 111 110 110 108 106 100 101 103 101 103 105 104 103 104 104 104 106 107 109 109 106 101 92 83 79 76 72 66 61 58 56 54 52 48 49 48 49 49 50 57 60 64 69 73 77 78 83 90
109 111 110 111 113 114 112 105 103 100 102 104 103 102 103 107 108 109 109 107 99 89 81 75 73 75 69 62 58 55 55 51 47 44 44 43 44 45 47 48 48 53 57 62 63 65 68 72 77
113 108 109 109 106 107 103 85 89 88 91 93 94 96 98 100 100 100 96 87 77 73 71 69 72 67 61 57 54 51 51 47 43 39 41 40 41 42 44 46 48 50 52 54 60 61 58 63 70

GFSSGP_250_spd_135.txt.gz
Wind_Speed
42 42 41 39 39 41 35 33 38 38 37 40 42 44 44 41 40 40 41 41 37 38 40 38 41 38 38 39 39 39 35 34 34 36 37 37 38 38 38 36 35 31 29 26 28 30 30 28 27
44 46 47 44 43 44 46 37 41 44 47 45 43 45 44 45 45 46 44 41 38 38 40 40 41 38 36 39 39 41 40 40 39 38 36 37 38 37 37 35 33 31 31 31 31 31 31 32 30
49 48 49 47 48 51 52 45 46 47 47 48 47 44 45 44 45 43 45 40 43 39 38 42 40 36 36 35 38 39 41 42 41 42 43 41 40 41 41 38 34 34 34 33 35 36 34 33 33
57 57 51 51 52 52 54 51 50 50 49 48 45 44 43 45 43 45 42 45 45 39 39 43 45 45 45 45 43 39 37 39 41 40 42 42 41 41 40 41 41 40 40 38 36 39 38 38 36
57 55 56 51 51 52 50 48 48 46 45 46 47 44 45 46 46 43 46 47 44 41 43 46 47 47 47 46 42 42 41 40 42 41 42 44 46 45 47 46 45 44 45 44 41 41 42 42 40
54 51 50 51 50 51 51 53 51 54 52 51 50 49 49 48 47 49 49 49 48 47 46 45 49 49 48 50 48 48 45 43 45 45 46 42 44 43 41 42 42 43 43 45 44 45 46 46 43
53 56 54 54 54 53 58 56 53 49 50 51 49 47 48 49 52 50 48 50 50 50 47 46 49 49 50 49 50 49 48 46 44 46 46 44 43 42 44 43 42 41 44 47 46 46 47 48 47
62 57 58 54 56 54 55 54 53 51 46 47 46 44 48 54 51 51 50 52 52 51 48 47 48 51 52 51 52 53 53 52 51 48 51 49 48 47 49 48 50 47 46 45 48 47 46 48 45
54 55 54 52 56 52 53 51 51 51 47 47 47 46 48 49 49 52 55 54 53 50 49 51 53 54 54 54 53 54 55 55 54 52 51 52 48 49 47 47 50 47 51 50 46 48 48 43 45
55 53 54 56 55 52 49 48 49 49 47 47 48 49 50 51 52 54 56 54 54 54 53 55 55 56 57 57 56 57 57 56 57 56 53 51 52 53 53 51 50 50 47 45 47 46 46 36 31
54 55 55 52 50 47 48 46 46 47 48 46 47 48 50 53 56 54 55 56 54 56 60 60 60 61 61 60 60 60 59 59 57 55 51 53 56 58 51 48 48 49 47 46 44 43 48 40 40
54 54 54 52 50 48 48 48 49 48 49 51 48 51 50 53 55 56 58 59 60 59 62 65 65 64 64 64 62 63 63 60 58 56 54 54 53 54 56 53 50 50 46 44 45 42 41 44 46
63 61 60 57 55 54 53 53 54 54 52 54 55 53 55 56 56 57 59 61 62 63 64 66 68 68 68 67 67 67 66 62 60 59 59 58 60 62 62 58 52 49 49 48 44 45 45 44 42
64 62 60 55 55 51 53 56 55 54 61 63 58 55 60 60 62 63 62 62 63 63 66 68 70 71 70 70 69 68 67 67 67 67 65 63 63 66 68 69 66 61 56 51 44 38 41 47 48
62 63 63 58 54 55 57 56 53 57 60 66 64 62 66 68 67 66 66 65 66 65 66 68 70 71 71 71 71 72 74 74 73 71 72 71 70 74 76 68 66 65 62 52 42 41 42 52 57
66 66 66 62 63 61 59 61 56 61 68 71 72 66 64 69 67 66 68 67 68 68 67 68 70 71 73 74 74 73 73 76 78 78 79 78 78 78 76 71 66 62 62 56 53 56 45 64 54
64 62 61 62 61 66 65 66 67 66 68 76 78 81 69 66 65 66 69 71 71 72 70 70 71 74 76 77 77 79 80 82 83 84 85 83 84 85 85 81 74 65 62 59 63 66 69 62 59
68 65 63 65 65 62 69 70 74 76 79 84 84 75 69 65 67 67 68 69 69 69 70 73 74 77 79 82 81 80 80 79 83 84 87 88 90 89 90 88 82 73 67 67 66 69 73 73 69
71 70 66 67 71 72 71 76 78 82 86 88 80 70 68 66 67 66 66 68 69 71 71 74 77 78 80 82 85 87 87 88 87 86 91 92 93 94 96 97 96 85 74 72 75 75 75 73 73
78 76 74 74 74 75 76 78 84 88 87 87 78 72 70 70 69 69 68 68 71 70 68 71 78 83 86 88 89 90 91 90 89 90 91 93 98 101 102 102 100 100 96 82 77 79 80 78 79
81 81 80 78 81 80 82 84 91 89 89 84 79 78 77 76 75 73 72 70 72 72 72 72 74 76 79 81 84 86 88 90 92 94 95 97 98 99 101 102 101 101 101 100 93 86 83 83 84
84 86 85 87 85 87 88 88 89 93 86 81 80 78 79 80 79 78 77 75 74 77 80 81 83 84 86 88 90 92 95 97 99 101 102 105 106 108 108 109 109 109 107 105 105 103 96 91 90
87 89 91 89 90 90 88 94 88 91 88 84 82 84 86 85 84 83 84 84 83 82 83 85 86 90 93 93 93 94 94 97 99 102 103 103 106 110 112 112 111 110 109 107 105 105 106 103 99
95 96 100 99 101 98 99 104 91 101 91 91 88 91 91 92 92 91 90 88 87 88 89 90 92 93 94 95 97 99 101 102 105 109 112 112 113 109 106 105 104 103 104 104 104 102 99 100 100
97 99 102 104 105 104 110 104 96 101 97 93 95 93 94 95 94 94 93 92 93 94 94 95 98 99 99 99 99 102 106 109 111 111 107 103 99 95 93 92 95 97 97 97 97 96 97 97 97
106 104 104 107 107 106 106 101 98 97 103 99 102 103 102 100 99 98 99 100 102 103 103 105 105 103 103 101 102 102 104 103 100 93 89 88 86 85 84 85 85 85 85 83 82 81 84 86 90
107 109 108 109 108 109 102 103 100 105 102 104 103 107 109 106 107 105 105 107 109 108 107 108 108 105 102 101 101 100 94 88 84 82 81 79 76 74 74 72 71 72 74 72 73 74 75 77 80
107 108 107 108 112 109 107 103 103 111 108 103 107 111 110 107 106 106 105 104 100 98 101 102 100 95 93 94 89 81 77 76 77 73 66 64 64 63 62 61 60 59 60 62 64 65 67 69 74
110 110 114 116 114 114 111 108 107 111 110 111 111 105 101 93 92 90 88 90 91 90 90 91 87 85 81 74 72 71 70 70 68 60 57 54 56 58 55 57 55 55 54 57 58 61 64 67 69
114 117 118 117 119 117 116 112 112 111 112 106 98 90 82 82 83 82 84 84 84 83 81 78 73 70 68 67 65 66 66 61 61 54 50 50 51 53 52 53 52 52 53 54 57 60 62 62 64

GFSSGP_250_spd_138.txt.gz
Wind_Speed
39 40 41 42 44 47 49 43 45 47 44 42 40 48 44 48 44 43 45 45 45 46 41 34 38 41 42 43 44 42 38 39 40 41 40 39 38 37 35 35 35 33 33 31 30 30 30 29 29
47 48 49 51 52 51 53 48 46 47 50 50 49 50 46 47 46 40 44 45 44 44 41 37 38 41 44 45 45 43 40 38 38 38 40 42 43 42 41 39 37 37 35 33 30 31 33 33 32
46 49 50 52 55 56 54 50 53 50 51 51 50 48 41 46 44 46 45 43 43 42 40 40 43 43 44 47 47 40 40 40 41 42 41 41 41 43 44 43 42 41 40 38 35 36 35 34 36
52 53 54 54 54 52 50 46 51 49 49 49 51 49 47 46 47 46 44 45 45 45 43 43 45 45 46 47 50 48 46 46 43 44 43 44 41 40 39 40 42 43 43 41 42 43 43 40 37
54 55 55 53 48 41 51 48 49 51 50 50 55 47 50 49 48 47 47 49 48 49 48 50 46 46 49 50 50 50 48 47 47 47 45 44 41 43 42 42 43 41 44 46 47 46 45 44 42
54 58 60 61 64 60 52 55 55 53 52 53 55 52 46 49 51 49 49 48 50 51 52 48 47 47 51 51 49 50 49 47 48 48 48 46 42 43 44 44 44 45 41 41 42 43 44 45 44
57 58 61 64 64 59 47 54 53 53 51 54 52 51 46 51 51 48 47 50 51 52 49 50 48 50 52 49 49 51 49 49 49 49 51 50 50 48 47 50 50 44 45 45 46 44 45 43 43
59 60 65 63 61 56 51 50 47 52 48 49 52 52 46 53 52 50 51 51 49 49 47 49 51 53 54 51 50 50 51 53 52 52 52 51 53 50 49 51 51 50 50 48 47 47 49 50 46
61 59 64 63 60 57 53 53 47 54 50 51 49 51 49 51 53 51 50 49 51 50 52 53 52 50 52 50 51 52 53 54 53 53 54 55 53 54 53 54 52 54 52 49 44 39 42 42 45
59 56 55 58 55 53 53 51 49 52 47 48 48 48 50 53 49 52 51 52 51 53 55 57 53 51 52 54 53 54 56 54 58 60 58 58 58 56 55 55 53 51 46 45 45 46 42 35 40
55 51 47 51 54 55 50 55 53 51 48 43 46 45 48 51 50 51 51 53 55 56 55 57 56 56 56 55 53 57 54 58 57 60 57 54 54 54 51 47 47 48 37 41 41 39 37 38 37
58 55 54 55 54 56 58 57 53 53 52 51 48 48 50 49 52 55 52 50 57 59 60 59 58 58 60 60 60 58 61 64 63 61 60 63 62 60 57 53 49 44 45 39 39 45 41 39 41
55 56 56 60 58 60 59 57 59 55 48 54 51 52 51 53 51 54 56 59 57 58 65 66 66 65 63 63 61 59 60 64 66 67 67 67 66 63 60 58 56 52 51 49 48 40 36 40 42
55 60 57 57 57 59 58 59 60 57 53 55 57 52 56 56 56 55 57 62 62 62 67 70 71 70 68 68 68 66 65 67 68 68 69 69 66 64 64 62 60 60 62 62 59 52 44 39 43
58 57 57 61 62 66 67 62 62 59 54 55 59 55 54 60 61 62 64 69 67 62 66 71 72 72 72 71 73 74 73 70 70 71 71 69 68 69 69 67 64 62 63 61 60 58 46 44 48
60 61 62 65 63 66 64 60 62 56 53 58 64 62 59 59 71 72 71 74 67 64 64 68 69 73 75 76 74 72 76 76 71 70 71 71 70 70 70 72 70 71 69 60 59 55 54 62 61
63 67 66 68 66 66 63 62 64 61 59 60 64 70 67 62 68 74 72 75 67 65 67 69 69 71 73 73 74 75 76 76 78 76 74 73 74 76 78 76 75 74 71 68 61 62 58 67 62
70 73 73 73 74 69 69 69 71 74 70 68 68 68 70 68 73 77 78 79 71 66 67 68 71 70 71 74 74 74 74 74 78 82 84 83 81 78 75 76 77 78 78 75 71 66 69 74 75
78 77 78 80 80 76 77 75 69 72 72 75 74 72 74 75 80 79 79 78 76 70 70 70 71 71 71 72 75 78 78 80 80 82 85 88 89 88 84 82 83 82 81 79 81 73 77 83 84
84 85 85 85 85 83 79 77 76 76 75 78 77 80 77 74 79 83 80 73 73 72 71 72 74 76 76 75 75 75 75 75 80 83 86 92 91 91 90 90 90 90 89 89 87 87 79 86 92
86 86 87 88 87 89 87 82 81 81 80 81 82 86 86 87 89 88 90 84 81 78 77 79 79 79 79 79 78 79 80 81 80 79 79 85 87 91 93 91 88 90 91 92 94 95 96 89 97
90 91 87 88 89 86 88 88 84 90 92 91 90 91 91 92 92 86 84 87 86 84 83 83 84 84 83 83 83 83 84 88 91 91 91 92 92 93 92 93 97 100 101 101 100 100 100 100 95
93 93 92 94 93 92 86 98 79 89 98 94 91 90 93 95 97 93 92 88 90 91 90 89 88 88 89 91 91 90 90 90 89 91 94 96 97 100 101 100 101 100 101 99 100 102 103 104 105
94 92 93 94 96 95 88 100 87 86 99 105 103 92 96 98 97 93 95 93 93 95 95 94 92 93 94 94 95 94 94 92 93 95 97 99 101 104 106 106 104 104 105 107 106 103 103 103 103
100 107 104 106 105 99 95 99 94 94 100 102 105 105 99 100 100 100 100 99 101 102 100 97 99 101 99 98 99 99 100 101 102 102 105 106 106 105 103 105 105 105 105 104 100 98 95 95 97
105 105 104 105 104 96 92 96 95 102 105 109 106 109 106 107 106 106 103 103 103 102 101 102 104 102 97 96 96 97 99 99 98 95 97 98 97 94 94 92 90 91 88 85 86 85 85 84 85
99 101 103 104 102 101 96 95 102 102 110 114 110 112 116 114 111 109 104 105 105 105 105 103 96 92 88 88 88 84 82 82 82 82 83 81 82 82 78 77 77 76 77 77 77 77 78 78 77
101 103 106 104 106 105 102 101 107 108 109 111 112 117 121 121 116 106 106 109 106 102 96 88 83 81 82 81 79 78 73 72 71 70 71 70 71 73 70 69 67 66 65 65 66 67 66 67 67
110 107 108 109 110 113 111 108 115 115 118 116 118 120 116 122 110 110 98 98 93 86 81 80 79 79 78 76 74 69 65 64 62 62 64 65 66 68 63 59 55 57 57 57 57 58 60 61 62
114 118 120 116 115 118 119 120 121 124 118 120 116 110 105 102 90 103 95 89 83 80 78 80 81 79 76 74 69 62 61 60 58 60 61 62 63 61 54 52 48 49 50 51 54 55 58 59 60